Time,TemperatureF,DewpointF,PressureIn,WindDirection,WindDirectionDegrees,WindSpeedMPH,WindSpeedGustMPH,Humidity,HourlyPrecipIn,Conditions,Clouds,dailyrainin,SolarRadiationWatts/m^2,SoftwareType,DateUTC
2013-11-18 00:01:00,57.4,56.3,29.79,SW,221,3.0,7.0,96,0.00,,,0.00,0,Wunderground v.1.15,2013-11-18 05:01:00,
2013-11-18 00:02:00,57.5,56.4,29.79,SW,219,9.0,9.0,96,0.00,,,0.00,0,Wunderground v.1.15,2013-11-18 05:02:00,
2013-11-18 00:03:00,57.5,56.4,29.79,SSW,200,11.0,11.0,96,0.00,,,0.00,0,Wunderground v.1.15,2013-11-18 05:03:00,
2013-11-18 00:04:00,57.5,56.4,29.79,SSW,211,3.0,11.0,96,0.00,,,0.00,0,Wunderground v.1.15,2013-11-18 05:04:00,
2013-11-18 00:07:00,57.5,56.4,29.79,SSW,213,4.0,11.0,96,0.00,,,0.00,0,Wunderground v.1.15,2013-11-18 05:07:00,
2013-11-18 00:09:00,57.5,56.4,29.79,SSW,202,7.0,11.0,96,0.00,,,0.00,0,Wunderground v.1.15,2013-11-18 05:09:00,
2013-11-18 00:10:00,57.5,56.4,29.79,SSW,202,4.0,5.0,96,0.00,,,0.00,0,Wunderground v.1.15,2013-11-18 05:10:00,
2013-11-18 00:12:00,57.4,56.3,29.78,SW,217,3.0,5.0,96,0.00,,,0.00,0,Wunderground v.1.15,2013-11-18 05:12:00,
2013-11-18 00:13:00,57.4,56.3,29.78,SW,221,8.0,8.0,96,0.00,,,0.00,0,Wunderground v.1.15,2013-11-18 05:13:00,
2013-11-18 00:15:00,57.3,56.2,29.78,SW,215,7.0,8.0,96,0.00,,,0.00,0,Wunderground v.1.15,2013-11-18 05:15:00,
2013-11-18 00:17:00,57.3,56.2,29.78,SW,227,0.0,8.0,96,0.00,,,0.00,0,Wunderground v.1.15,2013-11-18 05:17:00,
2013-11-18 00:19:00,57.2,56.1,29.78,SW,225,2.0,8.0,96,0.00,,,0.00,0,Wunderground v.1.15,2013-11-18 05:19:00,
2013-11-18 00:20:00,57.2,56.1,29.78,SW,220,1.0,4.0,96,0.00,,,0.00,0,Wunderground v.1.15,2013-11-18 05:20:00,
2013-11-18 00:23:00,57.1,56.0,29.78,SSW,211,0.0,7.0,96,0.00,,,0.00,0,Wunderground v.1.15,2013-11-18 05:23:00,
2013-11-18 00:24:00,57.1,56.0,29.78,South,186,7.0,7.0,96,0.00,,,0.00,0,Wunderground v.1.15,2013-11-18 05:24:00,
2013-11-18 00:27:00,57.0,55.6,29.78,South,191,9.0,9.0,95,0.00,,,0.00,0,Wunderground v.1.15,2013-11-18 05:27:00,
2013-11-18 00:29:00,57.0,55.6,29.78,SSW,201,3.0,9.0,95,0.00,,,0.00,0,Wunderground v.1.15,2013-11-18 05:29:00,
2013-11-18 00:30:00,56.9,55.5,29.78,SSW,209,7.0,7.0,95,0.00,,,0.00,0,Wunderground v.1.15,2013-11-18 05:30:00,
2013-11-18 00:33:00,56.8,55.4,29.77,SSW,202,0.0,7.0,95,0.00,,,0.00,0,Wunderground v.1.15,2013-11-18 05:33:00,
2013-11-18 00:34:00,56.8,55.4,29.78,SW,221,6.0,7.0,95,0.00,,,0.00,0,Wunderground v.1.15,2013-11-18 05:34:00,
2013-11-18 00:37:00,56.7,55.6,29.77,South,187,0.0,7.0,96,0.00,,,0.00,0,Wunderground v.1.15,2013-11-18 05:37:00,
2013-11-18 00:38:00,56.7,55.6,29.77,SSW,205,4.0,7.0,96,0.00,,,0.00,0,Wunderground v.1.15,2013-11-18 05:38:00,
2013-11-18 00:41:00,56.7,55.6,29.77,SSW,207,1.0,5.0,96,0.00,,,0.00,0,Wunderground v.1.15,2013-11-18 05:41:00,
2013-11-18 00:42:00,56.8,55.7,29.77,WSW,242,8.0,8.0,96,0.00,,,0.00,0,Wunderground v.1.15,2013-11-18 05:42:00,
2013-11-18 00:43:00,56.8,55.7,29.77,SSW,205,8.0,8.0,96,0.00,,,0.00,0,Wunderground v.1.15,2013-11-18 05:43:00,
2013-11-18 00:48:00,56.9,55.8,29.77,SSW,202,6.0,8.0,96,0.00,,,0.00,0,Wunderground v.1.15,2013-11-18 05:48:00,
2013-11-18 00:49:00,56.9,55.8,29.76,South,190,8.0,8.0,96,0.00,,,0.00,0,Wunderground v.1.15,2013-11-18 05:49:00,
2013-11-18 00:50:00,56.9,55.8,29.76,SW,227,4.0,5.0,96,0.00,,,0.00,0,Wunderground v.1.15,2013-11-18 05:50:00,
2013-11-18 00:51:00,56.9,55.8,29.76,SSW,197,5.0,5.0,96,0.00,,,0.00,0,Wunderground v.1.15,2013-11-18 05:51:00,
2013-11-18 00:53:00,57.0,55.9,29.76,SSW,203,4.0,6.0,96,0.00,,,0.00,0,Wunderground v.1.15,2013-11-18 05:53:00,
2013-11-18 00:54:00,57.0,55.9,29.76,SSW,213,8.0,8.0,96,0.00,,,0.00,0,Wunderground v.1.15,2013-11-18 05:54:00,
2013-11-18 00:57:00,57.0,55.9,29.75,SSW,199,1.0,8.0,96,0.00,,,0.00,0,Wunderground v.1.15,2013-11-18 05:57:00,
2013-11-18 00:58:00,57.0,55.9,29.75,SW,218,6.0,8.0,96,0.00,,,0.00,0,Wunderground v.1.15,2013-11-18 05:58:00,
2013-11-18 00:59:00,57.1,56.0,29.75,SW,224,8.0,8.0,96,0.00,,,0.00,0,Wunderground v.1.15,2013-11-18 05:59:00,
2013-11-18 01:00:00,57.1,56.0,29.75,SW,221,8.0,8.0,96,0.00,,,0.00,0,Wunderground v.1.15,2013-11-18 06:00:00,
2013-11-18 01:02:00,57.1,56.0,29.75,SW,223,6.0,8.0,96,0.00,,,0.00,0,Wunderground v.1.15,2013-11-18 06:02:00,
2013-11-18 01:03:00,57.1,56.0,29.75,SSW,193,6.0,8.0,96,0.00,,,0.00,0,Wunderground v.1.15,2013-11-18 06:03:00,
2013-11-18 01:05:00,57.1,56.0,29.75,SW,224,5.0,9.0,96,0.00,,,0.00,0,Wunderground v.1.15,2013-11-18 06:05:00,
2013-11-18 01:09:00,57.1,56.0,29.75,SW,216,2.0,13.0,96,0.00,,,0.00,0,Wunderground v.1.15,2013-11-18 06:09:00,
2013-11-18 01:11:00,57.2,56.1,29.75,SSW,192,7.0,9.0,96,0.00,,,0.00,0,Wunderground v.1.15,2013-11-18 06:11:00,
2013-11-18 01:12:00,57.2,56.1,29.75,SW,236,4.0,9.0,96,0.00,,,0.00,0,Wunderground v.1.15,2013-11-18 06:12:00,
2013-11-18 01:14:00,57.2,56.1,29.75,SW,217,7.0,9.0,96,0.00,,,0.00,0,Wunderground v.1.15,2013-11-18 06:14:00,
2013-11-18 01:16:00,57.3,56.2,29.75,SW,217,10.0,10.0,96,0.00,,,0.00,0,Wunderground v.1.15,2013-11-18 06:16:00,
2013-11-18 01:17:00,57.3,56.2,29.75,SSW,200,5.0,10.0,96,0.00,,,0.00,0,Wunderground v.1.15,2013-11-18 06:17:00,
2013-11-18 01:18:00,57.3,56.2,29.75,SW,219,6.0,10.0,96,0.00,,,0.00,0,Wunderground v.1.15,2013-11-18 06:18:00,
2013-11-18 01:19:00,57.3,56.2,29.75,SW,215,7.0,10.0,96,0.00,,,0.00,0,Wunderground v.1.15,2013-11-18 06:19:00,
2013-11-18 01:23:00,57.3,56.2,29.74,SSW,200,11.0,11.0,96,0.00,,,0.00,0,Wunderground v.1.15,2013-11-18 06:23:00,
2013-11-18 01:25:00,57.3,56.2,29.74,SSW,209,6.0,11.0,96,0.00,,,0.00,0,Wunderground v.1.15,2013-11-18 06:25:00,
2013-11-18 01:26:00,57.3,56.2,29.74,SW,233,5.0,11.0,96,0.00,,,0.00,0,Wunderground v.1.15,2013-11-18 06:26:00,
2013-11-18 01:27:00,57.3,56.2,29.74,SSW,213,7.0,11.0,96,0.00,,,0.00,0,Wunderground v.1.15,2013-11-18 06:27:00,
2013-11-18 01:28:00,57.3,56.2,29.74,SSW,210,6.0,11.0,96,0.00,,,0.00,0,Wunderground v.1.15,2013-11-18 06:28:00,
2013-11-18 01:29:00,57.3,56.2,29.74,SSW,199,5.0,11.0,96,0.00,,,0.00,0,Wunderground v.1.15,2013-11-18 06:29:00,
2013-11-18 01:31:00,57.3,56.2,29.74,SSW,209,0.0,6.0,96,0.00,,,0.00,0,Wunderground v.1.15,2013-11-18 06:31:00,
2013-11-18 01:33:00,57.2,56.1,29.74,SW,227,4.0,6.0,96,0.00,,,0.00,0,Wunderground v.1.15,2013-11-18 06:33:00,
2013-11-18 01:35:00,57.2,56.1,29.73,SW,215,5.0,6.0,96,0.00,,,0.00,0,Wunderground v.1.15,2013-11-18 06:35:00,
2013-11-18 01:36:00,57.2,56.1,29.73,WSW,239,8.0,8.0,96,0.00,,,0.00,0,Wunderground v.1.15,2013-11-18 06:36:00,
2013-11-18 01:38:00,57.1,56.0,29.73,SSW,195,6.0,8.0,96,0.00,,,0.00,0,Wunderground v.1.15,2013-11-18 06:38:00,
2013-11-18 01:39:00,57.1,56.0,29.73,SW,219,0.0,8.0,96,0.00,,,0.00,0,Wunderground v.1.15,2013-11-18 06:39:00,
2013-11-18 01:40:00,57.1,56.0,29.73,SW,227,6.0,6.0,96,0.00,,,0.00,0,Wunderground v.1.15,2013-11-18 06:40:00,
2013-11-18 01:42:00,57.0,55.9,29.73,SW,215,8.0,8.0,96,0.00,,,0.00,0,Wunderground v.1.15,2013-11-18 06:42:00,
2013-11-18 01:45:00,57.1,56.0,29.73,SW,222,8.0,8.0,96,0.00,,,0.00,0,Wunderground v.1.15,2013-11-18 06:45:00,
2013-11-18 01:46:00,57.1,56.0,29.73,SSW,209,11.0,11.0,96,0.00,,,0.00,0,Wunderground v.1.15,2013-11-18 06:46:00,
2013-11-18 01:51:00,57.2,56.1,29.72,SSW,211,12.0,12.0,96,0.00,,,0.00,0,Wunderground v.1.15,2013-11-18 06:51:00,
2013-11-18 01:52:00,57.3,56.2,29.72,SSW,210,4.0,12.0,96,0.00,,,0.00,0,Wunderground v.1.15,2013-11-18 06:52:00,
2013-11-18 01:53:00,57.3,56.2,29.72,SSW,203,2.0,12.0,96,0.00,,,0.01,0,Wunderground v.1.15,2013-11-18 06:53:00,
2013-11-18 01:54:00,57.4,56.3,29.72,SW,223,8.0,12.0,96,0.00,,,0.01,0,Wunderground v.1.15,2013-11-18 06:54:00,
2013-11-18 01:56:00,57.5,56.4,29.71,WSW,251,2.0,12.0,96,0.00,,,0.01,0,Wunderground v.1.15,2013-11-18 06:56:00,
2013-11-18 01:57:00,57.6,56.5,29.71,SSW,213,6.0,12.0,96,0.00,,,0.01,0,Wunderground v.1.15,2013-11-18 06:57:00,
2013-11-18 02:01:00,57.8,56.7,29.71,WSW,240,2.0,7.0,96,0.00,,,0.01,0,Wunderground v.1.15,2013-11-18 07:01:00,
2013-11-18 02:02:00,57.8,56.7,29.71,SSE,162,3.0,18.0,96,0.00,,,0.01,0,Wunderground v.1.15,2013-11-18 07:02:00,
2013-11-18 02:06:00,58.0,56.9,29.71,SW,217,6.0,18.0,96,0.00,,,0.01,0,Wunderground v.1.15,2013-11-18 07:06:00,
2013-11-18 02:07:00,58.0,56.9,29.71,WSW,240,4.0,18.0,96,0.00,,,0.01,0,Wunderground v.1.15,2013-11-18 07:07:00,
2013-11-18 02:08:00,58.0,56.9,29.71,SW,220,3.0,18.0,96,0.00,,,0.01,0,Wunderground v.1.15,2013-11-18 07:08:00,
2013-11-18 02:10:00,58.0,56.9,29.71,WSW,243,8.0,9.0,96,0.00,,,0.01,0,Wunderground v.1.15,2013-11-18 07:10:00,
2013-11-18 02:11:00,58.0,56.9,29.71,SW,236,10.0,10.0,96,0.00,,,0.01,0,Wunderground v.1.15,2013-11-18 07:11:00,
2013-11-18 02:12:00,58.0,56.9,29.71,SW,234,6.0,14.0,96,0.00,,,0.01,0,Wunderground v.1.15,2013-11-18 07:12:00,
2013-11-18 02:13:00,58.0,56.9,29.71,WSW,239,4.0,14.0,96,0.00,,,0.01,0,Wunderground v.1.15,2013-11-18 07:13:00,
2013-11-18 02:15:00,58.0,56.9,29.71,WSW,249,4.0,14.0,96,0.00,,,0.01,0,Wunderground v.1.15,2013-11-18 07:15:00,
2013-11-18 02:16:00,58.0,56.9,29.72,WSW,240,6.0,14.0,96,0.00,,,0.01,0,Wunderground v.1.15,2013-11-18 07:16:00,
2013-11-18 02:17:00,58.0,56.9,29.72,WSW,242,10.0,14.0,96,0.00,,,0.01,0,Wunderground v.1.15,2013-11-18 07:17:00,
2013-11-18 02:18:00,58.0,56.9,29.71,SW,226,3.0,14.0,96,0.00,,,0.01,0,Wunderground v.1.15,2013-11-18 07:18:00,
2013-11-18 02:21:00,57.9,56.8,29.70,SW,215,1.0,11.0,96,0.38,,,0.03,0,Wunderground v.1.15,2013-11-18 07:21:00,
2013-11-18 02:22:00,57.9,56.8,29.70,SSW,194,7.0,11.0,96,0.38,,,0.03,0,Wunderground v.1.15,2013-11-18 07:22:00,
2013-11-18 02:23:00,57.8,56.7,29.70,SSE,154,8.0,11.0,96,0.23,,,0.03,0,Wunderground v.1.15,2013-11-18 07:23:00,
2013-11-18 02:24:00,57.8,56.7,29.70,SSW,208,8.0,14.0,96,0.16,,,0.03,0,Wunderground v.1.15,2013-11-18 07:24:00,
2013-11-18 02:26:00,57.8,56.7,29.70,SSW,208,7.0,18.0,96,0.10,,,0.03,0,Wunderground v.1.15,2013-11-18 07:26:00,
2013-11-18 02:27:00,57.8,56.7,29.70,SW,236,8.0,18.0,96,0.10,,,0.03,0,Wunderground v.1.15,2013-11-18 07:27:00,
2013-11-18 02:28:00,57.7,56.6,29.70,WSW,238,6.0,18.0,96,0.08,,,0.03,0,Wunderground v.1.15,2013-11-18 07:28:00,
2013-11-18 02:29:00,57.7,56.6,29.70,SSW,209,5.0,18.0,96,0.07,,,0.03,0,Wunderground v.1.15,2013-11-18 07:29:00,
2013-11-18 02:31:00,57.5,56.4,29.69,SSW,199,11.0,11.0,96,0.06,,,0.03,0,Wunderground v.1.15,2013-11-18 07:31:00,
2013-11-18 02:33:00,57.4,56.3,29.69,SSW,207,3.0,15.0,96,0.05,,,0.03,0,Wunderground v.1.15,2013-11-18 07:33:00,
2013-11-18 02:34:00,57.3,56.2,29.69,SW,215,6.0,15.0,96,0.05,,,0.03,0,Wunderground v.1.15,2013-11-18 07:34:00,
2013-11-18 02:35:00,57.3,56.2,29.69,SSW,196,16.0,16.0,96,0.04,,,0.03,0,Wunderground v.1.15,2013-11-18 07:35:00,
2013-11-18 02:37:00,57.2,56.1,29.69,SSW,212,7.0,16.0,96,0.04,,,0.03,0,Wunderground v.1.15,2013-11-18 07:37:00,
2013-11-18 02:38:00,57.1,56.0,29.69,SSE,154,0.0,16.0,96,0.00,,,0.03,0,Wunderground v.1.15,2013-11-18 07:38:00,
2013-11-18 02:39:00,57.1,56.0,29.69,WSW,256,8.0,16.0,96,0.00,,,0.03,0,Wunderground v.1.15,2013-11-18 07:39:00,
2013-11-18 02:40:00,57.1,56.0,29.69,SSW,192,13.0,14.0,96,0.00,,,0.03,0,Wunderground v.1.15,2013-11-18 07:40:00,
2013-11-18 02:42:00,57.1,56.0,29.69,SSW,203,11.0,14.0,96,0.00,,,0.03,0,Wunderground v.1.15,2013-11-18 07:42:00,
2013-11-18 02:44:00,57.1,56.0,29.69,South,186,8.0,14.0,96,0.00,,,0.03,0,Wunderground v.1.15,2013-11-18 07:44:00,
2013-11-18 02:45:00,57.2,56.1,29.69,WSW,257,5.0,14.0,96,0.00,,,0.03,0,Wunderground v.1.15,2013-11-18 07:45:00,
2013-11-18 02:46:00,57.1,56.0,29.69,SSW,205,8.0,14.0,96,0.00,,,0.03,0,Wunderground v.1.15,2013-11-18 07:46:00,
2013-11-18 02:47:00,57.2,56.1,29.69,SSW,209,7.0,14.0,96,0.00,,,0.03,0,Wunderground v.1.15,2013-11-18 07:47:00,
2013-11-18 02:49:00,57.2,56.1,29.68,SSW,205,3.0,14.0,96,0.00,,,0.03,0,Wunderground v.1.15,2013-11-18 07:49:00,
2013-11-18 02:50:00,57.3,56.2,29.68,SSW,199,7.0,7.0,96,0.00,,,0.03,0,Wunderground v.1.15,2013-11-18 07:50:00,
2013-11-18 02:51:00,57.3,56.2,29.68,WSW,238,10.0,16.0,96,0.00,,,0.03,0,Wunderground v.1.15,2013-11-18 07:51:00,
2013-11-18 02:52:00,57.3,56.2,29.68,SSW,206,11.0,16.0,96,0.00,,,0.03,0,Wunderground v.1.15,2013-11-18 07:52:00,
2013-11-18 02:54:00,57.3,56.2,29.68,SSW,211,6.0,17.0,96,0.00,,,0.03,0,Wunderground v.1.15,2013-11-18 07:54:00,
2013-11-18 02:55:00,57.3,56.2,29.68,SSW,193,7.0,17.0,96,0.00,,,0.04,0,Wunderground v.1.15,2013-11-18 07:55:00,
2013-11-18 02:56:00,57.3,56.2,29.68,SW,226,12.0,17.0,96,0.00,,,0.04,0,Wunderground v.1.15,2013-11-18 07:56:00,
2013-11-18 02:57:00,57.3,56.2,29.67,SW,235,9.0,17.0,96,0.00,,,0.04,0,Wunderground v.1.15,2013-11-18 07:57:00,
2013-11-18 02:59:00,57.3,56.2,29.67,SW,219,5.0,17.0,96,0.00,,,0.04,0,Wunderground v.1.15,2013-11-18 07:59:00,
2013-11-18 03:00:00,57.3,56.2,29.67,SSE,168,7.0,13.0,96,0.00,,,0.04,0,Wunderground v.1.15,2013-11-18 08:00:00,
2013-11-18 03:01:00,57.3,56.2,29.67,SW,215,7.0,13.0,96,0.00,,,0.04,0,Wunderground v.1.15,2013-11-18 08:01:00,
2013-11-18 03:03:00,57.3,56.2,29.67,SW,236,0.0,14.0,96,0.00,,,0.04,0,Wunderground v.1.15,2013-11-18 08:03:00,
2013-11-18 03:04:00,57.3,56.2,29.67,WSW,240,7.0,14.0,96,0.00,,,0.04,0,Wunderground v.1.15,2013-11-18 08:04:00,
2013-11-18 03:05:00,57.2,56.1,29.67,SSW,202,10.0,14.0,96,0.00,,,0.04,0,Wunderground v.1.15,2013-11-18 08:05:00,
2013-11-18 03:06:00,57.2,56.1,29.67,SSW,207,5.0,14.0,96,0.00,,,0.04,0,Wunderground v.1.15,2013-11-18 08:06:00,
2013-11-18 03:07:00,57.2,56.1,29.67,SSW,208,1.0,14.0,96,0.00,,,0.04,0,Wunderground v.1.15,2013-11-18 08:07:00,
2013-11-18 03:08:00,57.2,56.1,29.67,SW,234,4.0,14.0,96,0.00,,,0.04,0,Wunderground v.1.15,2013-11-18 08:08:00,
2013-11-18 03:09:00,57.2,56.1,29.67,SSW,196,11.0,15.0,96,0.00,,,0.04,0,Wunderground v.1.15,2013-11-18 08:09:00,
2013-11-18 03:10:00,57.2,56.1,29.67,SSW,197,5.0,8.0,96,0.00,,,0.04,0,Wunderground v.1.15,2013-11-18 08:10:00,
2013-11-18 03:11:00,57.2,56.1,29.66,SSW,200,0.0,8.0,96,0.00,,,0.04,0,Wunderground v.1.15,2013-11-18 08:11:00,
2013-11-18 03:12:00,57.2,56.1,29.67,South,189,5.0,11.0,96,0.00,,,0.04,0,Wunderground v.1.15,2013-11-18 08:12:00,
2013-11-18 03:13:00,57.2,56.1,29.66,South,174,13.0,13.0,96,0.00,,,0.04,0,Wunderground v.1.15,2013-11-18 08:13:00,
2013-11-18 03:14:00,57.2,56.1,29.66,SSW,198,1.0,13.0,96,0.00,,,0.04,0,Wunderground v.1.15,2013-11-18 08:14:00,
2013-11-18 03:16:00,57.2,56.1,29.66,WSW,238,2.0,13.0,96,0.00,,,0.04,0,Wunderground v.1.15,2013-11-18 08:16:00,
2013-11-18 03:18:00,57.2,56.1,29.66,SSW,201,6.0,14.0,96,0.00,,,0.04,0,Wunderground v.1.15,2013-11-18 08:18:00,
2013-11-18 03:19:00,57.2,56.1,29.66,SSW,193,4.0,14.0,96,0.00,,,0.04,0,Wunderground v.1.15,2013-11-18 08:19:00,
2013-11-18 03:20:00,57.2,56.1,29.66,SSW,213,9.0,11.0,96,0.00,,,0.04,0,Wunderground v.1.15,2013-11-18 08:20:00,
2013-11-18 03:21:00,57.2,56.1,29.66,SSW,192,7.0,11.0,96,0.00,,,0.04,0,Wunderground v.1.15,2013-11-18 08:21:00,
2013-11-18 03:23:00,57.2,56.1,29.66,West,261,4.0,15.0,96,0.00,,,0.05,0,Wunderground v.1.15,2013-11-18 08:23:00,
2013-11-18 03:24:00,57.2,56.1,29.66,SW,215,4.0,21.0,96,0.00,,,0.05,0,Wunderground v.1.15,2013-11-18 08:24:00,
2013-11-18 03:25:00,57.2,56.1,29.66,SSW,200,7.0,21.0,96,0.00,,,0.05,0,Wunderground v.1.15,2013-11-18 08:25:00,
2013-11-18 03:26:00,57.2,56.1,29.66,WSW,253,7.0,21.0,96,0.00,,,0.05,0,Wunderground v.1.15,2013-11-18 08:26:00,
2013-11-18 03:27:00,57.2,56.1,29.66,SW,219,5.0,21.0,96,0.00,,,0.05,0,Wunderground v.1.15,2013-11-18 08:27:00,
2013-11-18 03:28:00,57.2,56.1,29.65,SW,218,4.0,21.0,96,0.00,,,0.05,0,Wunderground v.1.15,2013-11-18 08:28:00,
2013-11-18 03:29:00,57.3,56.2,29.65,SSW,211,3.0,21.0,96,0.00,,,0.05,0,Wunderground v.1.15,2013-11-18 08:29:00,
2013-11-18 03:31:00,57.2,56.1,29.65,SSW,192,8.0,11.0,96,0.00,,,0.05,0,Wunderground v.1.15,2013-11-18 08:31:00,
2013-11-18 03:32:00,57.2,56.1,29.65,SW,216,2.0,11.0,96,0.00,,,0.05,0,Wunderground v.1.15,2013-11-18 08:32:00,
2013-11-18 03:33:00,57.2,56.1,29.65,South,189,14.0,14.0,96,0.06,,,0.06,0,Wunderground v.1.15,2013-11-18 08:33:00,
2013-11-18 03:34:00,57.2,56.1,29.65,South,169,8.0,14.0,96,0.06,,,0.06,0,Wunderground v.1.15,2013-11-18 08:34:00,
2013-11-18 03:36:00,57.2,56.1,29.64,SW,215,14.0,14.0,96,0.06,,,0.06,0,Wunderground v.1.15,2013-11-18 08:36:00,
2013-11-18 03:37:00,57.2,56.1,29.64,WSW,244,6.0,14.0,96,0.06,,,0.06,0,Wunderground v.1.15,2013-11-18 08:37:00,
2013-11-18 03:39:00,57.1,56.0,29.65,SSW,199,5.0,14.0,96,0.06,,,0.06,0,Wunderground v.1.15,2013-11-18 08:39:00,
2013-11-18 03:40:00,57.1,56.0,29.65,SW,229,12.0,12.0,96,0.06,,,0.06,0,Wunderground v.1.15,2013-11-18 08:40:00,
2013-11-18 03:42:00,57.1,56.0,29.65,SSW,201,0.0,14.0,96,0.06,,,0.06,0,Wunderground v.1.15,2013-11-18 08:42:00,
2013-11-18 03:44:00,57.0,55.9,29.64,SSW,205,9.0,14.0,96,0.68,,,0.12,0,Wunderground v.1.15,2013-11-18 08:44:00,
2013-11-18 03:45:00,57.0,55.9,29.64,SW,218,7.0,14.0,96,0.57,,,0.12,0,Wunderground v.1.15,2013-11-18 08:45:00,
2013-11-18 03:47:00,56.9,55.8,29.64,SW,228,6.0,14.0,96,0.35,,,0.13,0,Wunderground v.1.15,2013-11-18 08:47:00,
2013-11-18 03:49:00,56.9,55.8,29.64,SW,223,4.0,14.0,96,0.15,,,0.13,0,Wunderground v.1.15,2013-11-18 08:49:00,
2013-11-18 03:50:00,56.9,55.8,29.64,SSW,205,14.0,14.0,96,0.14,,,0.14,0,Wunderground v.1.15,2013-11-18 08:50:00,
2013-11-18 03:52:00,56.8,55.7,29.64,SW,225,5.0,14.0,96,0.14,,,0.14,0,Wunderground v.1.15,2013-11-18 08:52:00,
2013-11-18 03:54:00,56.8,55.7,29.64,WSW,237,10.0,14.0,96,0.17,,,0.15,0,Wunderground v.1.15,2013-11-18 08:54:00,
2013-11-18 03:55:00,56.8,55.7,29.64,SW,229,5.0,14.0,96,0.17,,,0.15,0,Wunderground v.1.15,2013-11-18 08:55:00,
2013-11-18 03:57:00,56.8,55.7,29.64,SW,225,6.0,14.0,96,0.15,,,0.15,0,Wunderground v.1.15,2013-11-18 08:57:00,
2013-11-18 03:58:00,56.8,55.7,29.64,SSW,194,12.0,14.0,96,0.13,,,0.15,0,Wunderground v.1.15,2013-11-18 08:58:00,
2013-11-18 04:00:00,56.8,55.7,29.63,West,261,9.0,9.0,96,0.08,,,0.15,0,Wunderground v.1.15,2013-11-18 09:00:00,
2013-11-18 04:01:00,56.8,55.7,29.63,WSW,251,8.0,9.0,96,0.08,,,0.15,0,Wunderground v.1.15,2013-11-18 09:01:00,
2013-11-18 04:03:00,56.9,55.8,29.64,South,190,0.0,12.0,96,0.06,,,0.15,0,Wunderground v.1.15,2013-11-18 09:03:00,
2013-11-18 04:06:00,56.9,55.8,29.64,SW,232,9.0,14.0,96,0.05,,,0.15,0,Wunderground v.1.15,2013-11-18 09:06:00,
2013-11-18 04:08:00,57.0,55.9,29.64,SW,225,2.0,14.0,96,0.04,,,0.15,0,Wunderground v.1.15,2013-11-18 09:08:00,
2013-11-18 04:11:00,57.0,55.9,29.64,SW,229,6.0,10.0,96,0.00,,,0.15,0,Wunderground v.1.15,2013-11-18 09:11:00,
2013-11-18 04:12:00,57.0,55.9,29.64,SSW,209,2.0,10.0,96,0.00,,,0.15,0,Wunderground v.1.15,2013-11-18 09:12:00,
2013-11-18 04:14:00,57.0,55.9,29.64,SSW,212,7.0,13.0,96,0.00,,,0.15,0,Wunderground v.1.15,2013-11-18 09:14:00,
2013-11-18 04:15:00,57.0,55.9,29.64,SW,219,6.0,13.0,96,0.00,,,0.15,0,Wunderground v.1.15,2013-11-18 09:15:00,
2013-11-18 04:16:00,57.0,55.9,29.64,SSW,209,7.0,13.0,96,0.00,,,0.15,0,Wunderground v.1.15,2013-11-18 09:16:00,
2013-11-18 04:18:00,57.0,55.9,29.64,WSW,250,10.0,13.0,96,0.00,,,0.15,0,Wunderground v.1.15,2013-11-18 09:18:00,
2013-11-18 04:19:00,57.0,55.9,29.64,SSW,204,11.0,13.0,96,0.00,,,0.15,0,Wunderground v.1.15,2013-11-18 09:19:00,
2013-11-18 04:20:00,57.0,55.9,29.64,SSW,194,6.0,6.0,96,0.00,,,0.15,0,Wunderground v.1.15,2013-11-18 09:20:00,
2013-11-18 04:21:00,57.0,55.9,29.64,SW,236,4.0,6.0,96,0.00,,,0.15,0,Wunderground v.1.15,2013-11-18 09:21:00,
2013-11-18 04:22:00,56.9,55.8,29.64,SW,219,3.0,7.0,96,0.00,,,0.15,0,Wunderground v.1.15,2013-11-18 09:22:00,
2013-11-18 04:24:00,56.9,55.8,29.64,WSW,256,10.0,10.0,96,0.00,,,0.15,0,Wunderground v.1.15,2013-11-18 09:24:00,
2013-11-18 04:25:00,56.9,55.8,29.64,SSW,213,5.0,10.0,96,0.00,,,0.15,0,Wunderground v.1.15,2013-11-18 09:25:00,
2013-11-18 04:26:00,56.9,55.8,29.64,SW,222,5.0,10.0,96,0.00,,,0.15,0,Wunderground v.1.15,2013-11-18 09:26:00,
2013-11-18 04:27:00,56.9,55.8,29.64,WSW,237,4.0,10.0,96,0.00,,,0.15,0,Wunderground v.1.15,2013-11-18 09:27:00,
2013-11-18 04:29:00,56.9,55.8,29.64,SW,232,6.0,10.0,96,0.00,,,0.15,0,Wunderground v.1.15,2013-11-18 09:29:00,
2013-11-18 04:30:00,56.9,55.8,29.64,SW,236,3.0,5.0,96,0.00,,,0.15,0,Wunderground v.1.15,2013-11-18 09:30:00,
2013-11-18 04:31:00,56.9,55.8,29.64,WSW,239,4.0,7.0,96,0.00,,,0.15,0,Wunderground v.1.15,2013-11-18 09:31:00,
2013-11-18 04:33:00,56.9,55.8,29.64,SSW,198,7.0,7.0,96,0.00,,,0.15,0,Wunderground v.1.15,2013-11-18 09:33:00,
2013-11-18 04:34:00,56.9,55.8,29.64,SW,217,6.0,10.0,96,0.00,,,0.15,0,Wunderground v.1.15,2013-11-18 09:34:00,
2013-11-18 04:35:00,56.9,55.8,29.64,SW,227,0.0,10.0,96,0.00,,,0.15,0,Wunderground v.1.15,2013-11-18 09:35:00,
2013-11-18 04:36:00,56.9,55.8,29.64,SSW,198,7.0,11.0,96,0.00,,,0.15,0,Wunderground v.1.15,2013-11-18 09:36:00,
2013-11-18 04:38:00,56.9,55.8,29.64,SW,217,2.0,11.0,96,0.00,,,0.15,0,Wunderground v.1.15,2013-11-18 09:38:00,
2013-11-18 04:40:00,57.0,55.9,29.64,SW,224,0.0,4.0,96,0.00,,,0.15,0,Wunderground v.1.15,2013-11-18 09:40:00,
2013-11-18 04:41:00,57.1,56.0,29.64,SSW,207,7.0,7.0,96,0.00,,,0.16,0,Wunderground v.1.15,2013-11-18 09:41:00,
2013-11-18 04:42:00,57.1,56.0,29.64,SSW,207,3.0,8.0,96,0.00,,,0.16,0,Wunderground v.1.15,2013-11-18 09:42:00,
2013-11-18 04:44:00,57.1,56.0,29.64,SSW,205,3.0,8.0,96,0.00,,,0.16,0,Wunderground v.1.15,2013-11-18 09:44:00,
2013-11-18 04:45:00,57.1,56.0,29.64,SSW,207,2.0,8.0,96,0.00,,,0.16,0,Wunderground v.1.15,2013-11-18 09:45:00,
2013-11-18 04:46:00,57.2,56.1,29.64,SW,218,4.0,8.0,96,0.00,,,0.16,0,Wunderground v.1.15,2013-11-18 09:46:00,
2013-11-18 04:47:00,57.2,56.1,29.64,SW,225,5.0,8.0,96,0.00,,,0.16,0,Wunderground v.1.15,2013-11-18 09:47:00,
2013-11-18 04:48:00,57.2,56.1,29.64,SW,220,3.0,8.0,96,0.00,,,0.16,0,Wunderground v.1.15,2013-11-18 09:48:00,
2013-11-18 04:49:00,57.2,56.1,29.64,SW,215,4.0,8.0,96,0.00,,,0.16,0,Wunderground v.1.15,2013-11-18 09:49:00,
2013-11-18 04:50:00,57.2,56.1,29.64,SW,221,3.0,6.0,96,0.00,,,0.16,0,Wunderground v.1.15,2013-11-18 09:50:00,
2013-11-18 04:51:00,57.2,56.1,29.64,SW,218,0.0,6.0,96,0.00,,,0.16,0,Wunderground v.1.15,2013-11-18 09:51:00,
2013-11-18 04:52:00,57.3,56.2,29.64,SW,216,4.0,7.0,96,0.00,,,0.16,0,Wunderground v.1.15,2013-11-18 09:52:00,
2013-11-18 04:53:00,57.3,56.2,29.64,SW,222,0.0,7.0,96,0.00,,,0.16,0,Wunderground v.1.15,2013-11-18 09:53:00,
2013-11-18 04:54:00,57.3,56.2,29.64,SW,215,0.0,7.0,96,0.00,,,0.16,0,Wunderground v.1.15,2013-11-18 09:54:00,
2013-11-18 04:55:00,57.4,56.6,29.64,SW,216,3.0,7.0,97,0.04,,,0.17,0,Wunderground v.1.15,2013-11-18 09:55:00,
2013-11-18 04:57:00,57.4,56.6,29.64,SW,217,0.0,7.0,97,0.04,,,0.17,0,Wunderground v.1.15,2013-11-18 09:57:00,
2013-11-18 04:58:00,57.5,56.7,29.64,SW,217,0.0,7.0,97,0.04,,,0.17,0,Wunderground v.1.15,2013-11-18 09:58:00,
2013-11-18 04:59:00,57.5,56.7,29.65,SW,217,0.0,7.0,97,0.04,,,0.17,0,Wunderground v.1.15,2013-11-18 09:59:00,
2013-11-18 05:00:00,57.5,56.7,29.65,SW,217,0.0,2.0,97,0.04,,,0.17,0,Wunderground v.1.15,2013-11-18 10:00:00,
2013-11-18 05:02:00,57.6,56.8,29.65,SW,217,0.0,2.0,97,0.55,,,0.18,0,Wunderground v.1.15,2013-11-18 10:02:00,
2013-11-18 05:03:00,57.6,56.8,29.65,SW,217,0.0,2.0,97,0.55,,,0.19,0,Wunderground v.1.15,2013-11-18 10:03:00,
2013-11-18 05:04:00,57.7,56.9,29.65,SW,217,0.0,2.0,97,0.36,,,0.20,0,Wunderground v.1.15,2013-11-18 10:04:00,
2013-11-18 05:06:00,57.8,57.0,29.66,West,260,6.0,9.0,97,0.18,,,0.20,0,Wunderground v.1.15,2013-11-18 10:06:00,
2013-11-18 05:07:00,57.9,57.1,29.66,West,275,6.0,9.0,97,0.14,,,0.20,0,Wunderground v.1.15,2013-11-18 10:07:00,
2013-11-18 05:08:00,58.0,57.2,29.67,NW,309,8.0,10.0,97,0.12,,,0.20,0,Wunderground v.1.15,2013-11-18 10:08:00,
2013-11-18 05:09:00,58.3,57.5,29.66,NW,306,5.0,17.0,97,0.10,,,0.21,0,Wunderground v.1.15,2013-11-18 10:09:00,
2013-11-18 05:10:00,58.6,57.8,29.66,WNW,297,4.0,6.0,97,0.10,,,0.21,0,Wunderground v.1.15,2013-11-18 10:10:00,
2013-11-18 05:11:00,59.1,58.2,29.66,NW,308,7.0,14.0,97,0.10,,,0.21,0,Wunderground v.1.15,2013-11-18 10:11:00,
2013-11-18 05:13:00,59.5,58.6,29.66,WNW,295,2.0,14.0,97,0.10,,,0.21,0,Wunderground v.1.15,2013-11-18 10:13:00,
2013-11-18 05:14:00,59.8,58.9,29.66,WNW,285,3.0,14.0,97,0.10,,,0.21,0,Wunderground v.1.15,2013-11-18 10:14:00,
2013-11-18 05:16:00,60.0,59.1,29.66,West,281,3.0,14.0,97,0.08,,,0.21,0,Wunderground v.1.15,2013-11-18 10:16:00,
2013-11-18 05:18:00,60.1,59.2,29.66,WNW,288,5.0,14.0,97,0.07,,,0.21,0,Wunderground v.1.15,2013-11-18 10:18:00,
2013-11-18 05:19:00,60.1,59.2,29.66,WNW,290,5.0,14.0,97,0.06,,,0.21,0,Wunderground v.1.15,2013-11-18 10:19:00,
2013-11-18 05:20:00,60.2,59.3,29.66,WNW,290,1.0,4.0,97,0.05,,,0.21,0,Wunderground v.1.15,2013-11-18 10:20:00,
2013-11-18 05:21:00,60.1,59.2,29.66,NW,304,6.0,6.0,97,0.05,,,0.21,0,Wunderground v.1.15,2013-11-18 10:21:00,
2013-11-18 05:23:00,60.2,59.3,29.66,WNW,296,0.0,6.0,97,0.04,,,0.21,0,Wunderground v.1.15,2013-11-18 10:23:00,
2013-11-18 05:24:00,60.1,59.2,29.66,West,278,3.0,9.0,97,0.04,,,0.21,0,Wunderground v.1.15,2013-11-18 10:24:00,
2013-11-18 05:25:00,60.1,59.2,29.66,WNW,290,5.0,9.0,97,0.04,,,0.21,0,Wunderground v.1.15,2013-11-18 10:25:00,
2013-11-18 05:27:00,60.0,59.1,29.67,WNW,291,3.0,9.0,97,0.00,,,0.21,0,Wunderground v.1.15,2013-11-18 10:27:00,
2013-11-18 05:28:00,59.9,59.0,29.67,WNW,300,3.0,10.0,97,0.00,,,0.21,0,Wunderground v.1.15,2013-11-18 10:28:00,
2013-11-18 05:29:00,59.8,58.7,29.67,NW,304,6.0,10.0,96,0.00,,,0.21,0,Wunderground v.1.15,2013-11-18 10:29:00,
2013-11-18 05:30:00,59.8,58.7,29.67,WNW,284,0.0,6.0,96,0.00,,,0.21,0,Wunderground v.1.15,2013-11-18 10:30:00,
2013-11-18 05:31:00,59.7,58.6,29.67,West,276,4.0,6.0,96,0.00,,,0.21,0,Wunderground v.1.15,2013-11-18 10:31:00,
2013-11-18 05:32:00,59.6,58.5,29.67,NW,311,4.0,8.0,96,0.00,,,0.21,0,Wunderground v.1.15,2013-11-18 10:32:00,
2013-11-18 05:34:00,59.5,58.4,29.67,WNW,286,0.0,8.0,96,0.00,,,0.21,0,Wunderground v.1.15,2013-11-18 10:34:00,
2013-11-18 05:35:00,59.5,58.4,29.67,WNW,286,0.0,8.0,96,0.00,,,0.21,0,Wunderground v.1.15,2013-11-18 10:35:00,
2013-11-18 05:36:00,59.4,58.3,29.67,NW,308,2.0,11.0,96,0.00,,,0.21,0,Wunderground v.1.15,2013-11-18 10:36:00,
2013-11-18 05:38:00,59.3,58.2,29.67,WNW,293,5.0,11.0,96,0.00,,,0.21,0,Wunderground v.1.15,2013-11-18 10:38:00,
2013-11-18 05:39:00,59.2,58.1,29.66,West,272,4.0,11.0,96,0.00,,,0.21,0,Wunderground v.1.15,2013-11-18 10:39:00,
2013-11-18 05:41:00,59.0,57.9,29.67,WNW,284,3.0,4.0,96,0.00,,,0.21,0,Wunderground v.1.15,2013-11-18 10:41:00,
2013-11-18 05:42:00,59.0,57.9,29.66,WNW,300,4.0,9.0,96,0.00,,,0.21,0,Wunderground v.1.15,2013-11-18 10:42:00,
2013-11-18 05:43:00,58.9,57.8,29.66,WNW,288,4.0,9.0,96,0.00,,,0.21,0,Wunderground v.1.15,2013-11-18 10:43:00,
2013-11-18 05:45:00,58.7,57.6,29.66,WNW,286,6.0,9.0,96,0.00,,,0.21,0,Wunderground v.1.15,2013-11-18 10:45:00,
2013-11-18 05:46:00,58.6,57.5,29.66,West,279,5.0,9.0,96,0.00,,,0.21,0,Wunderground v.1.15,2013-11-18 10:46:00,
2013-11-18 05:47:00,58.5,57.4,29.66,West,281,0.0,9.0,96,0.00,,,0.21,0,Wunderground v.1.15,2013-11-18 10:47:00,
2013-11-18 05:48:00,58.4,57.3,29.67,WNW,292,5.0,9.0,96,0.00,,,0.21,0,Wunderground v.1.15,2013-11-18 10:48:00,
2013-11-18 05:49:00,58.4,57.3,29.67,WNW,295,2.0,9.0,96,0.00,,,0.21,0,Wunderground v.1.15,2013-11-18 10:49:00,
2013-11-18 05:50:00,58.3,57.2,29.67,WNW,290,0.0,3.0,96,0.00,,,0.21,0,Wunderground v.1.15,2013-11-18 10:50:00,
2013-11-18 05:51:00,58.2,57.1,29.67,WNW,291,0.0,8.0,96,0.00,,,0.21,0,Wunderground v.1.15,2013-11-18 10:51:00,
2013-11-18 05:53:00,58.1,57.0,29.67,WNW,284,0.0,8.0,96,0.00,,,0.21,0,Wunderground v.1.15,2013-11-18 10:53:00,
2013-11-18 05:54:00,58.1,57.0,29.67,WNW,290,0.0,8.0,96,0.00,,,0.21,0,Wunderground v.1.15,2013-11-18 10:54:00,
2013-11-18 05:56:00,58.0,56.9,29.67,WNW,292,1.0,8.0,96,0.00,,,0.21,0,Wunderground v.1.15,2013-11-18 10:56:00,
2013-11-18 05:59:00,57.9,56.8,29.67,WNW,298,0.0,8.0,96,0.00,,,0.21,0,Wunderground v.1.15,2013-11-18 10:59:00,
2013-11-18 06:00:00,57.9,56.8,29.67,WNW,298,0.0,1.0,96,0.00,,,0.21,0,Wunderground v.1.15,2013-11-18 11:00:00,
2013-11-18 06:01:00,57.8,56.7,29.66,WNW,293,0.0,4.0,96,0.00,,,0.21,0,Wunderground v.1.15,2013-11-18 11:01:00,
2013-11-18 06:02:00,57.8,56.7,29.66,WNW,293,0.0,4.0,96,0.00,,,0.21,0,Wunderground v.1.15,2013-11-18 11:02:00,
2013-11-18 06:04:00,57.8,56.7,29.66,WNW,293,0.0,4.0,96,0.00,,,0.21,0,Wunderground v.1.15,2013-11-18 11:04:00,
2013-11-18 06:05:00,57.7,56.6,29.66,WNW,297,4.0,4.0,96,0.00,,,0.21,0,Wunderground v.1.15,2013-11-18 11:05:00,
2013-11-18 06:07:00,57.7,56.6,29.66,WNW,297,0.0,4.0,96,0.00,,,0.21,0,Wunderground v.1.15,2013-11-18 11:07:00,
2013-11-18 06:10:00,57.7,56.6,29.66,WNW,298,0.0,0.0,96,0.00,,,0.21,0,Wunderground v.1.15,2013-11-18 11:10:00,
2013-11-18 06:11:00,57.7,56.6,29.66,WNW,303,1.0,5.0,96,0.00,,,0.21,0,Wunderground v.1.15,2013-11-18 11:11:00,
2013-11-18 06:12:00,57.7,56.6,29.66,WNW,303,0.0,5.0,96,0.00,,,0.21,0,Wunderground v.1.15,2013-11-18 11:12:00,
2013-11-18 06:13:00,57.7,56.6,29.66,WNW,302,0.0,5.0,96,0.00,,,0.21,0,Wunderground v.1.15,2013-11-18 11:13:00,
2013-11-18 06:15:00,57.7,56.6,29.66,WNW,302,0.0,5.0,96,0.00,,,0.21,0,Wunderground v.1.15,2013-11-18 11:15:00,
2013-11-18 06:16:00,57.6,56.5,29.65,WNW,302,0.0,5.0,96,0.00,,,0.21,0,Wunderground v.1.15,2013-11-18 11:16:00,
2013-11-18 06:17:00,57.6,56.5,29.65,WNW,302,0.0,5.0,96,0.00,,,0.21,0,Wunderground v.1.15,2013-11-18 11:17:00,
2013-11-18 06:18:00,57.6,56.5,29.65,WNW,302,0.0,5.0,96,0.00,,,0.21,0,Wunderground v.1.15,2013-11-18 11:18:00,
2013-11-18 06:20:00,57.7,56.6,29.66,WNW,302,0.0,0.0,96,0.00,,,0.21,0,Wunderground v.1.15,2013-11-18 11:20:00,
2013-11-18 06:22:00,57.6,56.5,29.66,WNW,302,0.0,0.0,96,0.00,,,0.21,0,Wunderground v.1.15,2013-11-18 11:22:00,
2013-11-18 06:23:00,57.6,56.5,29.66,WNW,302,0.0,0.0,96,0.00,,,0.21,0,Wunderground v.1.15,2013-11-18 11:23:00,
2013-11-18 06:25:00,57.7,56.6,29.66,WNW,302,0.0,2.0,96,0.00,,,0.21,0,Wunderground v.1.15,2013-11-18 11:25:00,
2013-11-18 06:27:00,57.6,56.5,29.66,WNW,302,0.0,2.0,96,0.00,,,0.21,0,Wunderground v.1.15,2013-11-18 11:27:00,
2013-11-18 06:28:00,57.6,56.5,29.66,WNW,302,0.0,2.0,96,0.00,,,0.21,0,Wunderground v.1.15,2013-11-18 11:28:00,
2013-11-18 06:31:00,57.6,56.5,29.66,WNW,302,0.0,0.0,96,0.00,,,0.21,0,Wunderground v.1.15,2013-11-18 11:31:00,
2013-11-18 06:32:00,57.7,56.6,29.66,WNW,302,0.0,0.0,96,0.00,,,0.21,0,Wunderground v.1.15,2013-11-18 11:32:00,
2013-11-18 06:33:00,57.7,56.6,29.66,WNW,302,4.0,4.0,96,0.00,,,0.21,0,Wunderground v.1.15,2013-11-18 11:33:00,
2013-11-18 06:34:00,57.7,56.6,29.66,WNW,301,0.0,4.0,96,0.00,,,0.21,0,Wunderground v.1.15,2013-11-18 11:34:00,
2013-11-18 06:36:00,57.7,56.6,29.66,WNW,298,0.0,4.0,96,0.00,,,0.21,0,Wunderground v.1.15,2013-11-18 11:36:00,
2013-11-18 06:37:00,57.7,56.6,29.67,WNW,298,0.0,4.0,96,0.00,,,0.21,0,Wunderground v.1.15,2013-11-18 11:37:00,
2013-11-18 06:38:00,57.7,56.6,29.67,WNW,298,0.0,4.0,96,0.00,,,0.21,0,Wunderground v.1.15,2013-11-18 11:38:00,
2013-11-18 06:39:00,57.7,56.6,29.67,West,278,0.0,4.0,96,0.00,,,0.21,0,Wunderground v.1.15,2013-11-18 11:39:00,
2013-11-18 06:41:00,57.7,56.6,29.67,West,278,0.0,6.0,96,0.00,,,0.21,0,Wunderground v.1.15,2013-11-18 11:41:00,
2013-11-18 06:42:00,57.8,56.7,29.68,West,279,0.0,6.0,96,0.00,,,0.21,0,Wunderground v.1.15,2013-11-18 11:42:00,
2013-11-18 06:43:00,57.7,56.6,29.68,West,279,2.0,6.0,96,0.00,,,0.21,0,Wunderground v.1.15,2013-11-18 11:43:00,
2013-11-18 06:45:00,57.7,56.6,29.67,West,277,0.0,6.0,96,0.00,,,0.21,0,Wunderground v.1.15,2013-11-18 11:45:00,
2013-11-18 06:46:00,57.7,56.6,29.67,West,278,0.0,6.0,96,0.00,,,0.21,0,Wunderground v.1.15,2013-11-18 11:46:00,
2013-11-18 06:47:00,57.7,56.6,29.67,West,277,0.0,6.0,96,0.00,,,0.21,0,Wunderground v.1.15,2013-11-18 11:47:00,
2013-11-18 06:48:00,57.7,56.6,29.67,WNW,283,5.0,7.0,96,0.00,,,0.21,0,Wunderground v.1.15,2013-11-18 11:48:00,
2013-11-18 06:49:00,57.7,56.6,29.67,West,279,0.0,7.0,96,0.00,,,0.21,0,Wunderground v.1.15,2013-11-18 11:49:00,
2013-11-18 06:50:00,57.7,56.6,29.68,West,273,4.0,4.0,96,0.00,,,0.21,0,Wunderground v.1.15,2013-11-18 11:50:00,
2013-11-18 06:51:00,57.7,56.6,29.68,West,273,2.0,5.0,96,0.00,,,0.21,0,Wunderground v.1.15,2013-11-18 11:51:00,
2013-11-18 06:53:00,57.6,56.5,29.68,West,273,0.0,8.0,96,0.00,,,0.21,0,Wunderground v.1.15,2013-11-18 11:53:00,
2013-11-18 06:54:00,57.6,56.5,29.68,West,273,0.0,8.0,96,0.00,,,0.21,0,Wunderground v.1.15,2013-11-18 11:54:00,
2013-11-18 06:55:00,57.5,56.4,29.68,West,273,1.0,8.0,96,0.00,,,0.21,0,Wunderground v.1.15,2013-11-18 11:55:00,
2013-11-18 06:56:00,57.5,56.4,29.68,West,273,4.0,8.0,96,0.00,,,0.21,0,Wunderground v.1.15,2013-11-18 11:56:00,
2013-11-18 06:57:00,57.5,56.4,29.68,West,272,4.0,8.0,96,0.00,,,0.21,0,Wunderground v.1.15,2013-11-18 11:57:00,
2013-11-18 06:58:00,57.4,56.3,29.68,West,272,6.0,8.0,96,0.00,,,0.21,0,Wunderground v.1.15,2013-11-18 11:58:00,
2013-11-18 06:59:00,57.4,56.3,29.68,West,269,2.0,8.0,96,0.00,,,0.21,0,Wunderground v.1.15,2013-11-18 11:59:00,
2013-11-18 07:00:00,57.3,56.2,29.68,West,281,5.0,7.0,96,0.00,,,0.21,0,Wunderground v.1.15,2013-11-18 12:00:00,
2013-11-18 07:01:00,57.3,56.2,29.68,West,267,3.0,9.0,96,0.00,,,0.21,0,Wunderground v.1.15,2013-11-18 12:01:00,
2013-11-18 07:02:00,57.3,56.2,29.68,West,263,2.0,9.0,96,0.00,,,0.21,0,Wunderground v.1.15,2013-11-18 12:02:00,
2013-11-18 07:03:00,57.2,56.1,29.68,West,266,4.0,9.0,96,0.00,,,0.21,0,Wunderground v.1.15,2013-11-18 12:03:00,
2013-11-18 07:04:00,57.2,56.1,29.68,West,265,3.0,9.0,96,0.00,,,0.21,0,Wunderground v.1.15,2013-11-18 12:04:00,
2013-11-18 07:05:00,57.1,56.0,29.68,West,265,2.0,9.0,96,0.00,,,0.21,0,Wunderground v.1.15,2013-11-18 12:05:00,
2013-11-18 07:06:00,57.1,56.0,29.68,West,265,0.0,9.0,96,0.00,,,0.21,0,Wunderground v.1.15,2013-11-18 12:06:00,
2013-11-18 07:07:00,57.1,56.0,29.68,West,265,0.0,9.0,96,0.00,,,0.21,0,Wunderground v.1.15,2013-11-18 12:07:00,
2013-11-18 07:08:00,57.0,55.9,29.68,West,262,0.0,9.0,96,0.00,,,0.21,0,Wunderground v.1.15,2013-11-18 12:08:00,
2013-11-18 07:09:00,57.1,56.0,29.68,West,262,1.0,9.0,96,0.00,,,0.21,0,Wunderground v.1.15,2013-11-18 12:09:00,
2013-11-18 07:11:00,57.0,55.9,29.68,West,262,0.0,1.0,96,0.00,,,0.21,0,Wunderground v.1.15,2013-11-18 12:11:00,
2013-11-18 07:12:00,57.0,55.9,29.68,WSW,258,2.0,5.0,96,0.00,,,0.21,0,Wunderground v.1.15,2013-11-18 12:12:00,
2013-11-18 07:14:00,56.9,55.8,29.68,West,263,0.0,6.0,96,0.00,,,0.21,0,Wunderground v.1.15,2013-11-18 12:14:00,
2013-11-18 07:16:00,56.8,55.7,29.68,West,260,2.0,6.0,96,0.00,,,0.21,5,Wunderground v.1.15,2013-11-18 12:16:00,
2013-11-18 07:17:00,56.8,55.7,29.68,West,260,0.0,6.0,96,0.00,,,0.21,7,Wunderground v.1.15,2013-11-18 12:17:00,
2013-11-18 07:18:00,56.8,55.7,29.68,West,259,2.0,6.0,96,0.00,,,0.21,7,Wunderground v.1.15,2013-11-18 12:18:00,
2013-11-18 07:19:00,56.8,55.7,29.68,West,259,0.0,6.0,96,0.00,,,0.21,9,Wunderground v.1.15,2013-11-18 12:19:00,
2013-11-18 07:21:00,56.8,55.7,29.68,West,261,0.0,1.0,96,0.00,,,0.21,12,Wunderground v.1.15,2013-11-18 12:21:00,
2013-11-18 07:22:00,56.8,55.7,29.68,West,261,0.0,1.0,96,0.00,,,0.21,18,Wunderground v.1.15,2013-11-18 12:22:00,
2013-11-18 07:23:00,56.8,55.7,29.68,West,263,4.0,4.0,96,0.00,,,0.21,19,Wunderground v.1.15,2013-11-18 12:23:00,
2013-11-18 07:24:00,56.8,55.7,29.68,West,263,0.0,4.0,96,0.00,,,0.21,21,Wunderground v.1.15,2013-11-18 12:24:00,
2013-11-18 07:25:00,56.8,55.7,29.67,West,263,1.0,4.0,96,0.00,,,0.21,25,Wunderground v.1.15,2013-11-18 12:25:00,
2013-11-18 07:27:00,56.8,55.7,29.68,WNW,286,3.0,8.0,96,0.00,,,0.21,30,Wunderground v.1.15,2013-11-18 12:27:00,
2013-11-18 07:29:00,56.7,55.6,29.68,West,272,0.0,8.0,96,0.00,,,0.21,46,Wunderground v.1.15,2013-11-18 12:29:00,
2013-11-18 07:30:00,56.7,55.6,29.68,West,272,0.0,1.0,96,0.00,,,0.21,44,Wunderground v.1.15,2013-11-18 12:30:00,
2013-11-18 07:32:00,56.7,55.6,29.68,West,272,2.0,3.0,96,0.00,,,0.21,42,Wunderground v.1.15,2013-11-18 12:32:00,
2013-11-18 07:33:00,56.7,55.6,29.68,West,272,0.0,3.0,96,0.00,,,0.21,44,Wunderground v.1.15,2013-11-18 12:33:00,
2013-11-18 07:34:00,56.7,55.6,29.68,West,272,0.0,3.0,96,0.00,,,0.21,46,Wunderground v.1.15,2013-11-18 12:34:00,
2013-11-18 07:35:00,56.7,55.6,29.68,West,272,0.0,3.0,96,0.00,,,0.21,51,Wunderground v.1.15,2013-11-18 12:35:00,
2013-11-18 07:38:00,56.6,55.5,29.69,West,272,0.0,3.0,96,0.00,,,0.21,46,Wunderground v.1.15,2013-11-18 12:38:00,
2013-11-18 07:39:00,56.7,55.6,29.69,West,272,0.0,3.0,96,0.00,,,0.21,46,Wunderground v.1.15,2013-11-18 12:39:00,
2013-11-18 07:40:00,56.7,55.6,29.69,West,271,2.0,2.0,96,0.00,,,0.21,42,Wunderground v.1.15,2013-11-18 12:40:00,
2013-11-18 07:41:00,56.6,55.5,29.69,West,271,0.0,2.0,96,0.00,,,0.21,44,Wunderground v.1.15,2013-11-18 12:41:00,
2013-11-18 07:44:00,56.6,55.5,29.70,West,267,0.0,5.0,96,0.00,,,0.21,47,Wunderground v.1.15,2013-11-18 12:44:00,
2013-11-18 07:45:00,56.7,55.6,29.70,West,267,0.0,5.0,96,0.00,,,0.21,47,Wunderground v.1.15,2013-11-18 12:45:00,
2013-11-18 07:46:00,56.7,55.6,29.70,West,267,0.0,5.0,96,0.00,,,0.21,42,Wunderground v.1.15,2013-11-18 12:46:00,
2013-11-18 07:50:00,56.6,55.5,29.70,West,265,0.0,0.0,96,0.00,,,0.21,33,Wunderground v.1.15,2013-11-18 12:50:00,
2013-11-18 07:51:00,56.6,55.5,29.69,West,265,0.0,1.0,96,0.00,,,0.21,30,Wunderground v.1.15,2013-11-18 12:51:00,
2013-11-18 07:55:00,56.6,55.5,29.70,West,259,0.0,5.0,96,0.00,,,0.21,39,Wunderground v.1.15,2013-11-18 12:55:00,
2013-11-18 07:56:00,56.6,55.5,29.70,West,259,0.0,5.0,96,0.00,,,0.21,32,Wunderground v.1.15,2013-11-18 12:56:00,
2013-11-18 07:57:00,56.6,55.5,29.69,WSW,250,2.0,5.0,96,0.00,,,0.21,28,Wunderground v.1.15,2013-11-18 12:57:00,
2013-11-18 08:00:00,56.4,55.3,29.69,SW,229,4.0,4.0,96,0.00,,,0.21,26,Wunderground v.1.15,2013-11-18 13:00:00,
2013-11-18 08:01:00,56.4,55.3,29.70,SW,227,0.0,4.0,96,0.00,,,0.21,37,Wunderground v.1.15,2013-11-18 13:01:00,
2013-11-18 08:02:00,56.3,55.2,29.70,WNW,289,0.0,10.0,96,0.00,,,0.21,53,Wunderground v.1.15,2013-11-18 13:02:00,
2013-11-18 08:03:00,56.3,55.2,29.70,WNW,284,0.0,10.0,96,0.00,,,0.21,74,Wunderground v.1.15,2013-11-18 13:03:00,
2013-11-18 08:05:00,56.2,55.1,29.69,West,268,0.0,10.0,96,0.00,,,0.21,90,Wunderground v.1.15,2013-11-18 13:05:00,
2013-11-18 08:06:00,56.1,55.0,29.70,West,268,0.0,10.0,96,0.00,,,0.21,67,Wunderground v.1.15,2013-11-18 13:06:00,
2013-11-18 08:07:00,56.0,54.9,29.70,West,259,0.0,10.0,96,0.00,,,0.21,62,Wunderground v.1.15,2013-11-18 13:07:00,
2013-11-18 08:08:00,56.0,54.9,29.70,West,259,1.0,10.0,96,0.00,,,0.21,63,Wunderground v.1.15,2013-11-18 13:08:00,
2013-11-18 08:10:00,56.0,54.9,29.70,West,259,0.0,1.0,96,0.00,,,0.21,62,Wunderground v.1.15,2013-11-18 13:10:00,
2013-11-18 08:11:00,56.0,54.9,29.70,WSW,258,4.0,4.0,96,0.00,,,0.21,42,Wunderground v.1.15,2013-11-18 13:11:00,
2013-11-18 08:12:00,56.0,54.9,29.70,WSW,258,3.0,4.0,96,0.00,,,0.21,42,Wunderground v.1.15,2013-11-18 13:12:00,
2013-11-18 08:13:00,56.1,55.0,29.70,WSW,258,3.0,4.0,96,0.00,,,0.21,37,Wunderground v.1.15,2013-11-18 13:13:00,
2013-11-18 08:15:00,56.1,55.0,29.70,West,259,0.0,4.0,96,0.00,,,0.21,44,Wunderground v.1.15,2013-11-18 13:15:00,
2013-11-18 08:17:00,56.1,55.0,29.70,WSW,258,0.0,4.0,96,0.00,,,0.21,49,Wunderground v.1.15,2013-11-18 13:17:00,
2013-11-18 08:18:00,56.0,54.9,29.70,WSW,258,0.0,4.0,96,0.00,,,0.21,60,Wunderground v.1.15,2013-11-18 13:18:00,
2013-11-18 08:19:00,56.0,54.9,29.70,WSW,257,5.0,5.0,96,0.00,,,0.21,70,Wunderground v.1.15,2013-11-18 13:19:00,
2013-11-18 08:20:00,56.0,54.9,29.70,WSW,246,4.0,5.0,96,0.00,,,0.21,79,Wunderground v.1.15,2013-11-18 13:20:00,
2013-11-18 08:22:00,55.9,54.8,29.70,SW,226,1.0,7.0,96,0.00,,,0.21,77,Wunderground v.1.15,2013-11-18 13:22:00,
2013-11-18 08:23:00,55.9,54.8,29.70,SW,227,0.0,7.0,96,0.00,,,0.21,76,Wunderground v.1.15,2013-11-18 13:23:00,
2013-11-18 08:24:00,55.9,54.8,29.70,SW,227,0.0,7.0,96,0.00,,,0.21,67,Wunderground v.1.15,2013-11-18 13:24:00,
2013-11-18 08:25:00,55.9,54.8,29.70,SW,236,0.0,7.0,96,0.00,,,0.21,63,Wunderground v.1.15,2013-11-18 13:25:00,
2013-11-18 08:28:00,55.9,54.8,29.71,WSW,240,0.0,7.0,96,0.00,,,0.21,63,Wunderground v.1.15,2013-11-18 13:28:00,
2013-11-18 08:29:00,55.9,54.8,29.71,WSW,240,0.0,7.0,96,0.00,,,0.21,69,Wunderground v.1.15,2013-11-18 13:29:00,
2013-11-18 08:30:00,55.9,54.8,29.71,WSW,240,5.0,5.0,96,0.00,,,0.21,84,Wunderground v.1.15,2013-11-18 13:30:00,
2013-11-18 08:33:00,55.8,54.4,29.70,WSW,246,0.0,7.0,95,0.00,,,0.21,84,Wunderground v.1.15,2013-11-18 13:33:00,
2013-11-18 08:34:00,55.8,54.4,29.70,WSW,248,5.0,7.0,95,0.00,,,0.21,84,Wunderground v.1.15,2013-11-18 13:34:00,
2013-11-18 08:35:00,55.8,54.4,29.70,WSW,245,6.0,8.0,95,0.00,,,0.21,76,Wunderground v.1.15,2013-11-18 13:35:00,
2013-11-18 08:37:00,55.7,54.3,29.70,WSW,248,0.0,8.0,95,0.00,,,0.21,74,Wunderground v.1.15,2013-11-18 13:37:00,
2013-11-18 08:38:00,55.7,54.3,29.71,WSW,247,0.0,8.0,95,0.00,,,0.21,70,Wunderground v.1.15,2013-11-18 13:38:00,
2013-11-18 08:39:00,55.8,54.4,29.71,WSW,250,7.0,8.0,95,0.00,,,0.21,76,Wunderground v.1.15,2013-11-18 13:39:00,
2013-11-18 08:40:00,55.8,54.7,29.71,WSW,248,0.0,2.0,96,0.00,,,0.21,98,Wunderground v.1.15,2013-11-18 13:40:00,
2013-11-18 08:41:00,55.8,54.4,29.71,WSW,245,3.0,3.0,95,0.00,,,0.21,98,Wunderground v.1.15,2013-11-18 13:41:00,
2013-11-18 08:42:00,55.8,54.4,29.71,West,273,0.0,6.0,95,0.00,,,0.21,107,Wunderground v.1.15,2013-11-18 13:42:00,
2013-11-18 08:43:00,55.8,54.4,29.71,WSW,251,0.0,6.0,95,0.00,,,0.21,118,Wunderground v.1.15,2013-11-18 13:43:00,
2013-11-18 08:44:00,55.8,54.4,29.70,WSW,250,5.0,6.0,95,0.00,,,0.21,118,Wunderground v.1.15,2013-11-18 13:44:00,
2013-11-18 08:45:00,55.9,54.5,29.71,WSW,237,0.0,7.0,95,0.00,,,0.21,113,Wunderground v.1.15,2013-11-18 13:45:00,
2013-11-18 08:46:00,55.9,54.5,29.71,WSW,248,4.0,7.0,95,0.00,,,0.21,116,Wunderground v.1.15,2013-11-18 13:46:00,
2013-11-18 08:47:00,55.9,54.5,29.71,WSW,248,0.0,7.0,95,0.00,,,0.21,116,Wunderground v.1.15,2013-11-18 13:47:00,
2013-11-18 08:49:00,56.1,54.7,29.71,WSW,246,4.0,7.0,95,0.00,,,0.21,128,Wunderground v.1.15,2013-11-18 13:49:00,
2013-11-18 08:50:00,56.1,54.7,29.71,SW,236,3.0,4.0,95,0.00,,,0.21,121,Wunderground v.1.15,2013-11-18 13:50:00,
2013-11-18 08:51:00,56.2,54.8,29.71,SW,233,0.0,8.0,95,0.00,,,0.21,109,Wunderground v.1.15,2013-11-18 13:51:00,
2013-11-18 08:53:00,56.3,54.9,29.71,WSW,242,3.0,8.0,95,0.00,,,0.21,104,Wunderground v.1.15,2013-11-18 13:53:00,
2013-11-18 08:54:00,56.4,55.0,29.71,WSW,242,0.0,8.0,95,0.00,,,0.21,109,Wunderground v.1.15,2013-11-18 13:54:00,
2013-11-18 08:55:00,56.5,55.1,29.71,SW,228,0.0,8.0,95,0.00,,,0.21,113,Wunderground v.1.15,2013-11-18 13:55:00,
2013-11-18 08:56:00,56.6,54.9,29.71,SW,228,0.0,8.0,94,0.00,,,0.21,116,Wunderground v.1.15,2013-11-18 13:56:00,
2013-11-18 08:58:00,56.7,55.0,29.71,WSW,257,3.0,8.0,94,0.00,,,0.21,121,Wunderground v.1.15,2013-11-18 13:58:00,
2013-11-18 08:59:00,56.8,55.1,29.71,West,275,2.0,8.0,94,0.00,,,0.21,123,Wunderground v.1.15,2013-11-18 13:59:00,
2013-11-18 09:00:00,56.9,55.2,29.71,West,279,3.0,9.0,94,0.00,,,0.21,121,Wunderground v.1.15,2013-11-18 14:00:00,
2013-11-18 09:01:00,56.9,55.2,29.71,West,279,1.0,9.0,94,0.00,,,0.21,121,Wunderground v.1.15,2013-11-18 14:01:00,
2013-11-18 09:03:00,57.1,55.1,29.71,West,271,2.0,9.0,93,0.00,,,0.21,116,Wunderground v.1.15,2013-11-18 14:03:00,
2013-11-18 09:04:00,57.1,55.1,29.71,West,271,0.0,9.0,93,0.00,,,0.21,116,Wunderground v.1.15,2013-11-18 14:04:00,
2013-11-18 09:05:00,57.2,55.2,29.71,WSW,256,3.0,9.0,93,0.00,,,0.21,127,Wunderground v.1.15,2013-11-18 14:05:00,
2013-11-18 09:06:00,57.2,55.2,29.71,West,262,3.0,9.0,93,0.00,,,0.21,127,Wunderground v.1.15,2013-11-18 14:06:00,
2013-11-18 09:09:00,57.4,55.1,29.71,WNW,288,0.0,9.0,92,0.00,,,0.21,127,Wunderground v.1.15,2013-11-18 14:09:00,
2013-11-18 09:11:00,57.5,55.2,29.70,SW,229,5.0,7.0,92,0.00,,,0.21,135,Wunderground v.1.15,2013-11-18 14:11:00,
2013-11-18 09:12:00,57.6,55.0,29.70,West,277,9.0,9.0,91,0.00,,,0.21,141,Wunderground v.1.15,2013-11-18 14:12:00,
2013-11-18 09:14:00,57.7,54.8,29.70,West,269,5.0,9.0,90,0.00,,,0.21,141,Wunderground v.1.15,2013-11-18 14:14:00,
2013-11-18 09:15:00,57.8,54.9,29.70,West,270,1.0,9.0,90,0.00,,,0.21,148,Wunderground v.1.15,2013-11-18 14:15:00,
2013-11-18 09:16:00,57.8,54.9,29.71,West,277,2.0,9.0,90,0.00,,,0.21,132,Wunderground v.1.15,2013-11-18 14:16:00,
2013-11-18 09:17:00,57.9,55.0,29.71,West,277,0.0,9.0,90,0.00,,,0.21,132,Wunderground v.1.15,2013-11-18 14:17:00,
2013-11-18 09:19:00,58.1,54.6,29.70,WSW,258,0.0,9.0,88,0.00,,,0.21,123,Wunderground v.1.15,2013-11-18 14:19:00,
2013-11-18 09:20:00,58.2,54.7,29.70,WSW,258,0.0,3.0,88,0.00,,,0.21,121,Wunderground v.1.15,2013-11-18 14:20:00,
2013-11-18 09:21:00,58.3,54.4,29.70,West,275,2.0,3.0,87,0.00,,,0.21,121,Wunderground v.1.15,2013-11-18 14:21:00,
2013-11-18 09:22:00,58.3,54.4,29.70,WNW,284,4.0,6.0,87,0.00,,,0.21,121,Wunderground v.1.15,2013-11-18 14:22:00,
2013-11-18 09:24:00,58.6,54.1,29.70,West,275,0.0,6.0,85,0.00,,,0.21,128,Wunderground v.1.15,2013-11-18 14:24:00,
2013-11-18 09:25:00,58.6,54.1,29.70,West,278,3.0,6.0,85,0.00,,,0.21,132,Wunderground v.1.15,2013-11-18 14:25:00,
2013-11-18 09:26:00,58.7,53.9,29.70,West,273,2.0,7.0,84,0.00,,,0.21,128,Wunderground v.1.15,2013-11-18 14:26:00,
2013-11-18 09:27:00,58.7,53.9,29.70,West,279,3.0,7.0,84,0.00,,,0.21,128,Wunderground v.1.15,2013-11-18 14:27:00,
2013-11-18 09:28:00,58.8,53.6,29.70,West,275,0.0,7.0,83,0.00,,,0.21,125,Wunderground v.1.15,2013-11-18 14:28:00,
2013-11-18 09:30:00,58.9,53.4,29.70,West,267,0.0,7.0,82,0.00,,,0.21,128,Wunderground v.1.15,2013-11-18 14:30:00,
2013-11-18 09:31:00,59.0,53.2,29.70,West,267,0.0,1.0,81,0.00,,,0.21,111,Wunderground v.1.15,2013-11-18 14:31:00,
2013-11-18 09:32:00,59.0,53.2,29.70,West,267,0.0,1.0,81,0.00,,,0.21,98,Wunderground v.1.15,2013-11-18 14:32:00,
2013-11-18 09:34:00,59.1,52.9,29.70,West,267,8.0,10.0,80,0.00,,,0.21,79,Wunderground v.1.15,2013-11-18 14:34:00,
2013-11-18 09:35:00,59.2,52.7,29.70,SSW,196,7.0,10.0,79,0.00,,,0.21,130,Wunderground v.1.15,2013-11-18 14:35:00,
2013-11-18 09:37:00,59.3,52.8,29.70,West,266,0.0,10.0,79,0.00,,,0.21,88,Wunderground v.1.15,2013-11-18 14:37:00,
2013-11-18 09:38:00,59.3,52.4,29.70,West,279,3.0,10.0,78,0.00,,,0.21,88,Wunderground v.1.15,2013-11-18 14:38:00,
2013-11-18 09:39:00,59.4,52.5,29.70,West,279,0.0,10.0,78,0.00,,,0.21,88,Wunderground v.1.15,2013-11-18 14:39:00,
2013-11-18 09:41:00,59.6,52.4,29.70,West,269,1.0,6.0,77,0.00,,,0.21,371,Wunderground v.1.15,2013-11-18 14:41:00,
2013-11-18 09:42:00,59.9,52.7,29.70,WNW,285,0.0,6.0,77,0.00,,,0.21,288,Wunderground v.1.15,2013-11-18 14:42:00,
2013-11-18 09:43:00,60.0,52.8,29.70,West,267,2.0,8.0,77,0.00,,,0.21,279,Wunderground v.1.15,2013-11-18 14:43:00,
2013-11-18 09:45:00,60.3,52.7,29.70,West,271,6.0,8.0,76,0.00,,,0.21,243,Wunderground v.1.15,2013-11-18 14:45:00,
2013-11-18 09:46:00,60.5,52.5,29.70,WSW,253,0.0,10.0,75,0.00,,,0.21,193,Wunderground v.1.15,2013-11-18 14:46:00,
2013-11-18 09:47:00,60.6,52.3,29.70,West,261,0.0,10.0,74,0.00,,,0.21,186,Wunderground v.1.15,2013-11-18 14:47:00,
2013-11-18 09:48:00,60.6,52.3,29.70,West,261,0.0,10.0,74,0.00,,,0.21,176,Wunderground v.1.15,2013-11-18 14:48:00,
2013-11-18 09:50:00,60.8,52.5,29.70,WNW,289,3.0,5.0,74,0.00,,,0.21,162,Wunderground v.1.15,2013-11-18 14:50:00,
2013-11-18 09:52:00,60.9,52.2,29.70,West,260,4.0,6.0,73,0.00,,,0.21,178,Wunderground v.1.15,2013-11-18 14:52:00,
2013-11-18 09:53:00,60.9,52.2,29.70,WNW,292,4.0,6.0,73,0.00,,,0.21,178,Wunderground v.1.15,2013-11-18 14:53:00,
2013-11-18 09:55:00,61.0,51.9,29.70,West,263,0.0,7.0,72,0.00,,,0.21,204,Wunderground v.1.15,2013-11-18 14:55:00,
2013-11-18 09:57:00,61.1,52.0,29.70,West,277,0.0,7.0,72,0.00,,,0.21,176,Wunderground v.1.15,2013-11-18 14:57:00,
2013-11-18 09:58:00,61.1,52.0,29.70,WNW,290,6.0,12.0,72,0.00,,,0.21,176,Wunderground v.1.15,2013-11-18 14:58:00,
2013-11-18 09:59:00,61.2,52.1,29.70,WSW,247,8.0,12.0,72,0.00,,,0.21,186,Wunderground v.1.15,2013-11-18 14:59:00,
2013-11-18 10:00:00,61.2,51.7,29.70,WNW,282,5.0,7.0,71,0.00,,,0.21,172,Wunderground v.1.15,2013-11-18 15:00:00,
2013-11-18 10:02:00,61.2,51.7,29.70,WNW,293,8.0,8.0,71,0.00,,,0.21,160,Wunderground v.1.15,2013-11-18 15:02:00,
2013-11-18 10:04:00,61.2,51.3,29.70,SSW,209,7.0,12.0,70,0.00,,,0.21,135,Wunderground v.1.15,2013-11-18 15:04:00,
2013-11-18 10:05:00,61.2,51.3,29.70,West,259,3.0,15.0,70,0.00,,,0.21,483,Wunderground v.1.15,2013-11-18 15:05:00,
2013-11-18 10:07:00,61.4,51.1,29.70,WNW,285,1.0,15.0,69,0.00,,,0.21,578,Wunderground v.1.15,2013-11-18 15:07:00,
2013-11-18 10:09:00,61.7,51.0,29.70,WNW,287,3.0,15.0,68,0.00,,,0.21,541,Wunderground v.1.15,2013-11-18 15:09:00,
2013-11-18 10:10:00,61.9,51.2,29.70,WSW,253,2.0,6.0,68,0.00,,,0.21,257,Wunderground v.1.15,2013-11-18 15:10:00,
2013-11-18 10:11:00,62.0,51.3,29.69,WNW,287,8.0,16.0,68,0.00,,,0.21,225,Wunderground v.1.15,2013-11-18 15:11:00,
2013-11-18 10:13:00,62.2,51.1,29.69,WNW,290,7.0,16.0,67,0.00,,,0.21,568,Wunderground v.1.15,2013-11-18 15:13:00,
2013-11-18 10:14:00,62.3,50.8,29.69,WSW,252,4.0,16.0,66,0.00,,,0.21,568,Wunderground v.1.15,2013-11-18 15:14:00,
2013-11-18 10:15:00,62.3,50.8,29.69,WNW,294,6.0,16.0,66,0.00,,,0.21,568,Wunderground v.1.15,2013-11-18 15:15:00,
2013-11-18 10:17:00,62.5,51.0,29.69,West,265,11.0,16.0,66,0.00,,,0.21,301,Wunderground v.1.15,2013-11-18 15:17:00,
2013-11-18 10:19:00,62.6,51.1,29.69,WNW,297,5.0,16.0,66,0.00,,,0.21,258,Wunderground v.1.15,2013-11-18 15:19:00,
2013-11-18 10:20:00,62.7,51.2,29.69,West,281,4.0,5.0,66,0.00,,,0.21,258,Wunderground v.1.15,2013-11-18 15:20:00,
2013-11-18 10:21:00,62.8,51.3,29.69,West,277,0.0,6.0,66,0.00,,,0.21,258,Wunderground v.1.15,2013-11-18 15:21:00,
2013-11-18 10:22:00,62.8,51.3,29.69,West,260,2.0,6.0,66,0.00,,,0.21,475,Wunderground v.1.15,2013-11-18 15:22:00,
2013-11-18 10:24:00,62.9,51.0,29.69,West,263,6.0,13.0,65,0.00,,,0.21,475,Wunderground v.1.15,2013-11-18 15:24:00,
2013-11-18 10:25:00,62.9,50.5,29.69,WSW,251,8.0,13.0,64,0.00,,,0.21,475,Wunderground v.1.15,2013-11-18 15:25:00,
2013-11-18 10:26:00,63.0,50.6,29.69,WNW,292,6.0,17.0,64,0.00,,,0.21,475,Wunderground v.1.15,2013-11-18 15:26:00,
2013-11-18 10:28:00,63.1,50.7,29.69,WNW,299,4.0,17.0,64,0.00,,,0.21,394,Wunderground v.1.15,2013-11-18 15:28:00,
2013-11-18 10:29:00,63.1,50.7,29.69,West,272,0.0,17.0,64,0.00,,,0.21,424,Wunderground v.1.15,2013-11-18 15:29:00,
2013-11-18 10:30:00,63.2,50.8,29.69,West,273,6.0,6.0,64,0.00,,,0.21,346,Wunderground v.1.15,2013-11-18 15:30:00,
2013-11-18 10:31:00,63.3,50.9,29.69,WNW,292,4.0,6.0,64,0.00,,,0.21,276,Wunderground v.1.15,2013-11-18 15:31:00,
2013-11-18 10:33:00,63.5,50.2,29.68,WNW,290,13.0,13.0,62,0.00,,,0.21,279,Wunderground v.1.15,2013-11-18 15:33:00,
2013-11-18 10:34:00,63.6,50.3,29.68,WNW,297,4.0,13.0,62,0.00,,,0.21,480,Wunderground v.1.15,2013-11-18 15:34:00,
2013-11-18 10:35:00,63.6,49.9,29.68,WSW,255,5.0,13.0,61,0.00,,,0.21,434,Wunderground v.1.15,2013-11-18 15:35:00,
2013-11-18 10:36:00,63.6,49.5,29.68,West,271,8.0,14.0,60,0.00,,,0.21,415,Wunderground v.1.15,2013-11-18 15:36:00,
2013-11-18 10:37:00,63.6,49.5,29.68,West,278,6.0,14.0,60,0.00,,,0.21,415,Wunderground v.1.15,2013-11-18 15:37:00,
2013-11-18 10:38:00,63.7,49.5,29.68,West,266,5.0,14.0,60,0.00,,,0.21,299,Wunderground v.1.15,2013-11-18 15:38:00,
2013-11-18 10:39:00,63.8,49.6,29.68,WNW,290,0.0,14.0,60,0.00,,,0.21,413,Wunderground v.1.15,2013-11-18 15:39:00,
2013-11-18 10:40:00,63.9,49.7,29.68,NW,311,0.0,12.0,60,0.00,,,0.21,378,Wunderground v.1.15,2013-11-18 15:40:00,
2013-11-18 10:41:00,63.9,49.3,29.68,WNW,288,12.0,12.0,59,0.00,,,0.21,457,Wunderground v.1.15,2013-11-18 15:41:00,
2013-11-18 10:42:00,64.0,48.9,29.68,WNW,284,3.0,18.0,58,0.00,,,0.21,501,Wunderground v.1.15,2013-11-18 15:42:00,
2013-11-18 10:44:00,64.0,48.5,29.67,West,276,3.0,18.0,57,0.00,,,0.21,508,Wunderground v.1.15,2013-11-18 15:44:00,
2013-11-18 10:45:00,64.0,48.0,29.67,WNW,288,9.0,18.0,56,0.00,,,0.21,510,Wunderground v.1.15,2013-11-18 15:45:00,
2013-11-18 10:46:00,64.1,48.1,29.67,NW,306,3.0,18.0,56,0.00,,,0.21,510,Wunderground v.1.15,2013-11-18 15:46:00,
2013-11-18 10:47:00,64.1,48.1,29.67,WSW,249,7.0,18.0,56,0.00,,,0.21,454,Wunderground v.1.15,2013-11-18 15:47:00,
2013-11-18 10:48:00,64.1,48.1,29.67,WNW,287,6.0,18.0,56,0.00,,,0.21,429,Wunderground v.1.15,2013-11-18 15:48:00,
2013-11-18 10:49:00,64.1,47.6,29.67,WSW,257,6.0,18.0,55,0.00,,,0.21,508,Wunderground v.1.15,2013-11-18 15:49:00,
2013-11-18 10:50:00,64.1,48.1,29.67,WNW,288,1.0,7.0,56,0.00,,,0.21,508,Wunderground v.1.15,2013-11-18 15:50:00,
2013-11-18 10:51:00,64.2,48.6,29.67,WNW,294,10.0,14.0,57,0.00,,,0.21,517,Wunderground v.1.15,2013-11-18 15:51:00,
2013-11-18 10:53:00,64.3,47.8,29.67,NW,325,6.0,14.0,55,0.00,,,0.21,517,Wunderground v.1.15,2013-11-18 15:53:00,
2013-11-18 10:55:00,64.5,48.4,29.67,WNW,303,11.0,14.0,56,0.00,,,0.21,519,Wunderground v.1.15,2013-11-18 15:55:00,
2013-11-18 10:56:00,64.5,48.0,29.67,West,281,6.0,14.0,55,0.00,,,0.21,519,Wunderground v.1.15,2013-11-18 15:56:00,
2013-11-18 10:57:00,64.6,47.6,29.67,WNW,296,0.0,14.0,54,0.00,,,0.21,522,Wunderground v.1.15,2013-11-18 15:57:00,
2013-11-18 10:59:00,64.7,48.2,29.67,West,273,8.0,14.0,55,0.00,,,0.21,524,Wunderground v.1.15,2013-11-18 15:59:00,
2013-11-18 11:00:00,64.7,48.2,29.67,WNW,292,5.0,7.0,55,0.00,,,0.21,524,Wunderground v.1.15,2013-11-18 16:00:00,
2013-11-18 11:01:00,64.7,47.7,29.67,West,277,6.0,13.0,54,0.00,,,0.21,526,Wunderground v.1.15,2013-11-18 16:01:00,
2013-11-18 11:02:00,64.7,48.2,29.66,NW,315,9.0,13.0,55,0.00,,,0.21,526,Wunderground v.1.15,2013-11-18 16:02:00,
2013-11-18 11:03:00,64.7,47.7,29.66,WNW,290,11.0,13.0,54,0.00,,,0.21,526,Wunderground v.1.15,2013-11-18 16:03:00,
2013-11-18 11:04:00,64.7,48.2,29.66,WNW,286,2.0,13.0,55,0.00,,,0.21,526,Wunderground v.1.15,2013-11-18 16:04:00,
2013-11-18 11:06:00,64.8,48.2,29.66,NW,307,4.0,13.0,55,0.00,,,0.21,527,Wunderground v.1.15,2013-11-18 16:06:00,
2013-11-18 11:07:00,64.8,47.8,29.66,NW,316,3.0,13.0,54,0.00,,,0.21,529,Wunderground v.1.15,2013-11-18 16:07:00,
2013-11-18 11:08:00,64.8,47.8,29.66,WNW,293,6.0,13.0,54,0.00,,,0.21,524,Wunderground v.1.15,2013-11-18 16:08:00,
2013-11-18 11:10:00,64.9,47.4,29.66,NNW,346,5.0,6.0,53,0.00,,,0.21,448,Wunderground v.1.15,2013-11-18 16:10:00,
2013-11-18 11:11:00,64.9,48.3,29.66,WNW,291,15.0,15.0,55,0.00,,,0.21,529,Wunderground v.1.15,2013-11-18 16:11:00,
2013-11-18 11:12:00,64.9,47.4,29.66,WNW,300,7.0,16.0,53,0.00,,,0.21,527,Wunderground v.1.15,2013-11-18 16:12:00,
2013-11-18 11:13:00,65.0,47.4,29.66,NW,306,9.0,16.0,53,0.00,,,0.21,529,Wunderground v.1.15,2013-11-18 16:13:00,
2013-11-18 11:15:00,65.0,46.9,29.66,WNW,297,7.0,19.0,52,0.00,,,0.21,533,Wunderground v.1.15,2013-11-18 16:15:00,
2013-11-18 11:16:00,65.0,47.4,29.66,WNW,288,8.0,19.0,53,0.00,,,0.21,533,Wunderground v.1.15,2013-11-18 16:16:00,
2013-11-18 11:17:00,65.0,47.4,29.66,NNW,346,4.0,19.0,53,0.00,,,0.21,534,Wunderground v.1.15,2013-11-18 16:17:00,
2013-11-18 11:18:00,64.9,46.8,29.66,West,263,3.0,19.0,52,0.00,,,0.21,534,Wunderground v.1.15,2013-11-18 16:18:00,
2013-11-18 11:21:00,65.0,47.4,29.66,WNW,288,3.0,11.0,53,0.00,,,0.21,534,Wunderground v.1.15,2013-11-18 16:21:00,
2013-11-18 11:22:00,65.0,47.4,29.66,WNW,301,5.0,12.0,53,0.00,,,0.21,536,Wunderground v.1.15,2013-11-18 16:22:00,
2013-11-18 11:23:00,65.1,47.5,29.66,WNW,282,6.0,12.0,53,0.00,,,0.21,534,Wunderground v.1.15,2013-11-18 16:23:00,
2013-11-18 11:26:00,65.2,47.6,29.65,WNW,296,6.0,14.0,53,0.00,,,0.21,538,Wunderground v.1.15,2013-11-18 16:26:00,
2013-11-18 11:27:00,65.3,47.2,29.65,NW,304,6.0,14.0,52,0.00,,,0.21,540,Wunderground v.1.15,2013-11-18 16:27:00,
2013-11-18 11:28:00,65.4,47.3,29.65,NW,314,5.0,14.0,52,0.00,,,0.21,541,Wunderground v.1.15,2013-11-18 16:28:00,
2013-11-18 11:31:00,65.6,47.5,29.65,WNW,292,1.0,6.0,52,0.00,,,0.21,540,Wunderground v.1.15,2013-11-18 16:31:00,
2013-11-18 11:32:00,65.7,46.5,29.65,WNW,286,10.0,13.0,50,0.00,,,0.21,540,Wunderground v.1.15,2013-11-18 16:32:00,
2013-11-18 11:33:00,65.7,46.5,29.65,WNW,282,7.0,13.0,50,0.00,,,0.21,540,Wunderground v.1.15,2013-11-18 16:33:00,
2013-11-18 11:34:00,65.8,46.1,29.65,NW,307,7.0,13.0,49,0.00,,,0.21,541,Wunderground v.1.15,2013-11-18 16:34:00,
2013-11-18 11:36:00,65.7,46.0,29.65,WNW,291,9.0,13.0,49,0.00,,,0.21,533,Wunderground v.1.15,2013-11-18 16:36:00,
2013-11-18 11:38:00,65.8,46.1,29.65,WNW,282,0.0,13.0,49,0.00,,,0.21,466,Wunderground v.1.15,2013-11-18 16:38:00,
2013-11-18 11:40:00,66.0,46.3,29.65,NW,308,1.0,5.0,49,0.00,,,0.21,404,Wunderground v.1.15,2013-11-18 16:40:00,
2013-11-18 11:41:00,66.1,46.9,29.65,WNW,302,1.0,13.0,50,0.00,,,0.21,443,Wunderground v.1.15,2013-11-18 16:41:00,
2013-11-18 11:43:00,66.3,46.0,29.65,WNW,300,15.0,19.0,48,0.00,,,0.21,406,Wunderground v.1.15,2013-11-18 16:43:00,
2013-11-18 11:44:00,66.2,45.4,29.65,WSW,253,5.0,19.0,47,0.00,,,0.21,406,Wunderground v.1.15,2013-11-18 16:44:00,
2013-11-18 11:46:00,66.2,45.9,29.65,NW,325,1.0,19.0,48,0.00,,,0.21,534,Wunderground v.1.15,2013-11-18 16:46:00,
2013-11-18 11:47:00,66.3,45.5,29.65,West,265,9.0,19.0,47,0.00,,,0.21,476,Wunderground v.1.15,2013-11-18 16:47:00,
2013-11-18 11:48:00,66.2,45.4,29.65,West,281,6.0,19.0,47,0.00,,,0.21,464,Wunderground v.1.15,2013-11-18 16:48:00,
2013-11-18 11:51:00,66.2,45.4,29.65,West,276,1.0,11.0,47,0.00,,,0.21,545,Wunderground v.1.15,2013-11-18 16:51:00,
2013-11-18 11:52:00,66.2,44.8,29.65,West,265,6.0,13.0,46,0.00,,,0.21,548,Wunderground v.1.15,2013-11-18 16:52:00,
2013-11-18 11:53:00,66.2,44.8,29.65,West,264,1.0,13.0,46,0.00,,,0.21,548,Wunderground v.1.15,2013-11-18 16:53:00,
2013-11-18 11:56:00,66.3,44.9,29.65,WNW,296,15.0,15.0,46,0.00,,,0.21,394,Wunderground v.1.15,2013-11-18 16:56:00,
2013-11-18 11:57:00,66.3,44.3,29.65,WNW,282,6.0,20.0,45,0.00,,,0.21,394,Wunderground v.1.15,2013-11-18 16:57:00,
2013-11-18 11:58:00,66.3,44.3,29.65,WNW,294,12.0,20.0,45,0.00,,,0.21,394,Wunderground v.1.15,2013-11-18 16:58:00,
2013-11-18 12:01:00,66.3,44.3,29.64,West,275,0.0,11.0,45,0.00,,,0.21,513,Wunderground v.1.15,2013-11-18 17:01:00,
2013-11-18 12:02:00,66.4,44.4,29.65,WNW,289,2.0,11.0,45,0.00,,,0.21,517,Wunderground v.1.15,2013-11-18 17:02:00,
2013-11-18 12:03:00,66.4,44.4,29.65,WNW,289,1.0,11.0,45,0.00,,,0.21,517,Wunderground v.1.15,2013-11-18 17:03:00,
2013-11-18 12:04:00,66.5,44.5,29.64,West,275,6.0,11.0,45,0.00,,,0.21,452,Wunderground v.1.15,2013-11-18 17:04:00,
2013-11-18 12:07:00,66.6,44.0,29.64,NW,317,7.0,17.0,44,0.00,,,0.21,378,Wunderground v.1.15,2013-11-18 17:07:00,
2013-11-18 12:08:00,66.6,44.0,29.64,WNW,294,8.0,17.0,44,0.00,,,0.21,378,Wunderground v.1.15,2013-11-18 17:08:00,
2013-11-18 12:09:00,66.7,43.5,29.64,West,275,6.0,17.0,43,0.00,,,0.21,415,Wunderground v.1.15,2013-11-18 17:09:00,
2013-11-18 12:10:00,66.7,43.5,29.64,West,277,8.0,8.0,43,0.00,,,0.21,501,Wunderground v.1.15,2013-11-18 17:10:00,
2013-11-18 12:13:00,66.8,44.2,29.64,NW,305,6.0,14.0,44,0.00,,,0.21,438,Wunderground v.1.15,2013-11-18 17:13:00,
2013-11-18 12:15:00,66.8,44.2,29.64,WNW,288,8.0,14.0,44,0.00,,,0.21,476,Wunderground v.1.15,2013-11-18 17:15:00,
2013-11-18 12:18:00,66.9,43.0,29.64,WNW,300,4.0,18.0,42,0.00,,,0.21,533,Wunderground v.1.15,2013-11-18 17:18:00,
2013-11-18 12:19:00,66.9,43.0,29.64,West,281,5.0,18.0,42,0.00,,,0.21,533,Wunderground v.1.15,2013-11-18 17:19:00,
2013-11-18 12:20:00,66.9,43.0,29.64,NW,311,4.0,14.0,42,0.00,,,0.21,534,Wunderground v.1.15,2013-11-18 17:20:00,
2013-11-18 12:23:00,66.9,43.0,29.64,WNW,287,3.0,14.0,42,0.00,,,0.21,533,Wunderground v.1.15,2013-11-18 17:23:00,
2013-11-18 12:24:00,66.9,43.0,29.64,WNW,288,8.0,15.0,42,0.00,,,0.21,533,Wunderground v.1.15,2013-11-18 17:24:00,
2013-11-18 12:25:00,66.9,43.0,29.63,West,279,7.0,15.0,42,0.00,,,0.21,529,Wunderground v.1.15,2013-11-18 17:25:00,
2013-11-18 12:29:00,66.8,43.0,29.64,WNW,290,12.0,15.0,42,0.00,,,0.21,527,Wunderground v.1.15,2013-11-18 17:29:00,
2013-11-18 12:30:00,66.8,43.0,29.64,WNW,289,2.0,7.0,42,0.00,,,0.21,527,Wunderground v.1.15,2013-11-18 17:30:00,
2013-11-18 12:31:00,66.8,43.0,29.64,WNW,299,3.0,7.0,42,0.00,,,0.21,527,Wunderground v.1.15,2013-11-18 17:31:00,
2013-11-18 12:34:00,66.9,41.8,29.64,NW,309,5.0,18.0,40,0.00,,,0.21,526,Wunderground v.1.15,2013-11-18 17:34:00,
2013-11-18 12:35:00,66.8,41.7,29.64,West,267,8.0,18.0,40,0.00,,,0.21,526,Wunderground v.1.15,2013-11-18 17:35:00,
2013-11-18 12:36:00,66.8,41.7,29.64,WNW,296,8.0,18.0,40,0.00,,,0.21,524,Wunderground v.1.15,2013-11-18 17:36:00,
2013-11-18 12:40:00,66.9,42.4,29.64,WNW,290,2.0,11.0,41,0.00,,,0.21,520,Wunderground v.1.15,2013-11-18 17:40:00,
2013-11-18 12:41:00,67.0,42.5,29.63,WNW,290,0.0,11.0,41,0.00,,,0.21,520,Wunderground v.1.15,2013-11-18 17:41:00,
2013-11-18 12:42:00,67.0,42.5,29.64,WNW,290,0.0,11.0,41,0.00,,,0.21,519,Wunderground v.1.15,2013-11-18 17:42:00,
2013-11-18 12:45:00,67.3,42.1,29.64,West,263,5.0,13.0,40,0.00,,,0.21,519,Wunderground v.1.15,2013-11-18 17:45:00,
2013-11-18 12:46:00,67.4,42.2,29.64,WSW,244,7.0,13.0,40,0.00,,,0.21,513,Wunderground v.1.15,2013-11-18 17:46:00,
2013-11-18 12:47:00,67.4,42.2,29.64,WNW,288,7.0,13.0,40,0.00,,,0.21,512,Wunderground v.1.15,2013-11-18 17:47:00,
2013-11-18 12:48:00,67.4,41.6,29.64,NW,306,6.0,13.0,39,0.00,,,0.21,512,Wunderground v.1.15,2013-11-18 17:48:00,
2013-11-18 12:50:00,67.3,42.1,29.64,WNW,296,12.0,12.0,40,0.00,,,0.21,512,Wunderground v.1.15,2013-11-18 17:50:00,
2013-11-18 12:51:00,67.2,41.4,29.64,NW,308,8.0,12.0,39,0.00,,,0.21,508,Wunderground v.1.15,2013-11-18 17:51:00,
2013-11-18 12:52:00,67.2,41.4,29.64,WNW,297,6.0,16.0,39,0.00,,,0.21,508,Wunderground v.1.15,2013-11-18 17:52:00,
2013-11-18 12:53:00,67.2,41.4,29.64,WNW,284,4.0,16.0,39,0.00,,,0.21,508,Wunderground v.1.15,2013-11-18 17:53:00,
2013-11-18 12:54:00,67.1,41.3,29.64,WNW,288,9.0,16.0,39,0.00,,,0.21,506,Wunderground v.1.15,2013-11-18 17:54:00,
2013-11-18 12:56:00,67.1,41.3,29.64,NW,308,4.0,16.0,39,0.00,,,0.21,504,Wunderground v.1.15,2013-11-18 17:56:00,
2013-11-18 12:57:00,67.0,41.9,29.64,WNW,282,2.0,16.0,40,0.00,,,0.21,504,Wunderground v.1.15,2013-11-18 17:57:00,
2013-11-18 12:58:00,67.0,41.9,29.64,NW,322,3.0,16.0,40,0.00,,,0.21,503,Wunderground v.1.15,2013-11-18 17:58:00,
2013-11-18 12:59:00,67.1,42.0,29.64,West,275,9.0,16.0,40,0.00,,,0.21,501,Wunderground v.1.15,2013-11-18 17:59:00,
2013-11-18 13:01:00,67.1,41.3,29.64,WNW,282,0.0,14.0,39,0.00,,,0.21,496,Wunderground v.1.15,2013-11-18 18:01:00,
2013-11-18 13:02:00,67.1,41.3,29.64,NNW,328,11.0,14.0,39,0.00,,,0.21,496,Wunderground v.1.15,2013-11-18 18:02:00,
2013-11-18 13:03:00,67.2,41.4,29.64,WNW,293,5.0,16.0,39,0.00,,,0.21,496,Wunderground v.1.15,2013-11-18 18:03:00,
2013-11-18 13:04:00,67.2,41.4,29.64,WNW,298,7.0,16.0,39,0.00,,,0.21,496,Wunderground v.1.15,2013-11-18 18:04:00,
2013-11-18 13:06:00,67.1,41.3,29.64,West,275,13.0,16.0,39,0.00,,,0.21,490,Wunderground v.1.15,2013-11-18 18:06:00,
2013-11-18 13:07:00,67.1,41.3,29.64,NNW,331,11.0,16.0,39,0.00,,,0.21,490,Wunderground v.1.15,2013-11-18 18:07:00,
2013-11-18 13:08:00,67.1,41.3,29.64,West,281,6.0,16.0,39,0.00,,,0.21,489,Wunderground v.1.15,2013-11-18 18:08:00,
2013-11-18 13:09:00,67.1,41.3,29.64,West,281,2.0,16.0,39,0.00,,,0.21,487,Wunderground v.1.15,2013-11-18 18:09:00,
2013-11-18 13:10:00,67.2,42.0,29.64,West,272,11.0,11.0,40,0.00,,,0.21,483,Wunderground v.1.15,2013-11-18 18:10:00,
2013-11-18 13:12:00,67.2,41.4,29.64,NW,312,3.0,11.0,39,0.00,,,0.21,480,Wunderground v.1.15,2013-11-18 18:12:00,
2013-11-18 13:13:00,67.2,41.4,29.64,NW,323,7.0,11.0,39,0.00,,,0.21,480,Wunderground v.1.15,2013-11-18 18:13:00,
2013-11-18 13:14:00,67.2,42.0,29.64,WNW,301,0.0,11.0,40,0.00,,,0.21,480,Wunderground v.1.15,2013-11-18 18:14:00,
2013-11-18 13:15:00,67.2,41.4,29.64,West,261,5.0,18.0,39,0.00,,,0.21,476,Wunderground v.1.15,2013-11-18 18:15:00,
2013-11-18 13:16:00,67.2,41.4,29.64,WSW,257,3.0,18.0,39,0.00,,,0.21,476,Wunderground v.1.15,2013-11-18 18:16:00,
2013-11-18 13:17:00,67.3,42.1,29.64,NW,306,8.0,18.0,40,0.00,,,0.21,473,Wunderground v.1.15,2013-11-18 18:17:00,
2013-11-18 13:18:00,67.3,41.5,29.64,WNW,282,6.0,18.0,39,0.00,,,0.21,473,Wunderground v.1.15,2013-11-18 18:18:00,
2013-11-18 13:19:00,67.3,41.5,29.64,WNW,288,7.0,18.0,39,0.00,,,0.21,471,Wunderground v.1.15,2013-11-18 18:19:00,
2013-11-18 13:20:00,67.3,41.5,29.64,NW,304,5.0,8.0,39,0.00,,,0.21,469,Wunderground v.1.15,2013-11-18 18:20:00,
2013-11-18 13:21:00,67.2,41.4,29.64,WNW,297,10.0,10.0,39,0.00,,,0.21,469,Wunderground v.1.15,2013-11-18 18:21:00,
2013-11-18 13:22:00,67.2,40.7,29.64,WNW,289,4.0,14.0,38,0.00,,,0.21,466,Wunderground v.1.15,2013-11-18 18:22:00,
2013-11-18 13:23:00,67.1,41.3,29.64,West,279,2.0,14.0,39,0.00,,,0.21,466,Wunderground v.1.15,2013-11-18 18:23:00,
2013-11-18 13:24:00,67.1,41.3,29.64,West,275,3.0,14.0,39,0.00,,,0.21,461,Wunderground v.1.15,2013-11-18 18:24:00,
2013-11-18 13:25:00,67.1,42.0,29.64,West,278,6.0,15.0,40,0.00,,,0.21,461,Wunderground v.1.15,2013-11-18 18:25:00,
2013-11-18 13:26:00,67.2,41.4,29.64,NW,308,5.0,15.0,39,0.00,,,0.21,459,Wunderground v.1.15,2013-11-18 18:26:00,
2013-11-18 13:27:00,67.2,41.4,29.64,WNW,296,9.0,15.0,39,0.00,,,0.21,457,Wunderground v.1.15,2013-11-18 18:27:00,
2013-11-18 13:28:00,67.2,41.4,29.64,WNW,296,3.0,15.0,39,0.00,,,0.21,457,Wunderground v.1.15,2013-11-18 18:28:00,
2013-11-18 13:30:00,67.2,41.4,29.64,WNW,302,8.0,8.0,39,0.00,,,0.21,455,Wunderground v.1.15,2013-11-18 18:30:00,
2013-11-18 13:31:00,67.3,42.1,29.64,NNW,327,0.0,10.0,40,0.00,,,0.21,452,Wunderground v.1.15,2013-11-18 18:31:00,
2013-11-18 13:32:00,67.3,42.1,29.64,NNW,327,0.0,10.0,40,0.00,,,0.21,452,Wunderground v.1.15,2013-11-18 18:32:00,
2013-11-18 13:33:00,67.4,41.6,29.64,West,275,4.0,10.0,39,0.00,,,0.21,450,Wunderground v.1.15,2013-11-18 18:33:00,
2013-11-18 13:34:00,67.4,41.6,29.64,West,277,7.0,10.0,39,0.00,,,0.21,448,Wunderground v.1.15,2013-11-18 18:34:00,
2013-11-18 13:35:00,67.5,41.0,29.64,West,275,15.0,15.0,38,0.00,,,0.21,445,Wunderground v.1.15,2013-11-18 18:35:00,
2013-11-18 13:37:00,67.4,40.9,29.64,West,272,7.0,15.0,38,0.00,,,0.21,443,Wunderground v.1.15,2013-11-18 18:37:00,
2013-11-18 13:38:00,67.4,40.9,29.63,WNW,296,3.0,15.0,38,0.00,,,0.21,441,Wunderground v.1.15,2013-11-18 18:38:00,
2013-11-18 13:39:00,67.3,40.8,29.64,WNW,287,6.0,15.0,38,0.00,,,0.21,436,Wunderground v.1.15,2013-11-18 18:39:00,
2013-11-18 13:40:00,67.3,40.8,29.64,WNW,298,8.0,8.0,38,0.00,,,0.21,436,Wunderground v.1.15,2013-11-18 18:40:00,
2013-11-18 13:42:00,67.3,40.8,29.63,West,268,3.0,9.0,38,0.00,,,0.21,434,Wunderground v.1.15,2013-11-18 18:42:00,
2013-11-18 13:43:00,67.3,41.5,29.64,WNW,282,6.0,9.0,39,0.00,,,0.21,431,Wunderground v.1.15,2013-11-18 18:43:00,
2013-11-18 13:45:00,67.3,41.5,29.64,West,271,5.0,9.0,39,0.00,,,0.21,427,Wunderground v.1.15,2013-11-18 18:45:00,
2013-11-18 13:46:00,67.3,41.5,29.64,West,278,0.0,9.0,39,0.00,,,0.21,425,Wunderground v.1.15,2013-11-18 18:46:00,
2013-11-18 13:47:00,67.3,41.5,29.64,WSW,250,1.0,9.0,39,0.00,,,0.21,424,Wunderground v.1.15,2013-11-18 18:47:00,
2013-11-18 13:48:00,67.4,41.6,29.64,WNW,286,6.0,11.0,39,0.00,,,0.21,420,Wunderground v.1.15,2013-11-18 18:48:00,
2013-11-18 13:50:00,67.5,41.7,29.64,WNW,302,3.0,3.0,39,0.00,,,0.21,418,Wunderground v.1.15,2013-11-18 18:50:00,
2013-11-18 13:51:00,67.5,40.3,29.64,NNW,329,0.0,14.0,37,0.00,,,0.21,417,Wunderground v.1.15,2013-11-18 18:51:00,
2013-11-18 13:52:00,67.5,40.3,29.63,West,265,2.0,14.0,37,0.00,,,0.21,415,Wunderground v.1.15,2013-11-18 18:52:00,
2013-11-18 13:54:00,67.4,40.2,29.64,NW,311,3.0,14.0,37,0.00,,,0.21,411,Wunderground v.1.15,2013-11-18 18:54:00,
2013-11-18 13:56:00,67.4,40.2,29.64,NNW,332,7.0,14.0,37,0.00,,,0.21,406,Wunderground v.1.15,2013-11-18 18:56:00,
2013-11-18 13:57:00,67.2,40.0,29.64,WSW,252,7.0,14.0,37,0.00,,,0.21,401,Wunderground v.1.15,2013-11-18 18:57:00,
2013-11-18 13:59:00,67.2,39.3,29.64,WSW,244,5.0,14.0,36,0.00,,,0.21,399,Wunderground v.1.15,2013-11-18 18:59:00,
2013-11-18 14:01:00,67.0,39.1,29.63,West,269,5.0,10.0,36,0.00,,,0.21,390,Wunderground v.1.15,2013-11-18 19:01:00,
2013-11-18 14:02:00,67.0,39.1,29.63,WNW,299,4.0,10.0,36,0.00,,,0.21,367,Wunderground v.1.15,2013-11-18 19:02:00,
2013-11-18 14:04:00,67.0,39.1,29.63,WNW,284,7.0,12.0,36,0.00,,,0.21,306,Wunderground v.1.15,2013-11-18 19:04:00,
2013-11-18 14:06:00,66.9,39.1,29.63,WNW,288,3.0,14.0,36,0.00,,,0.21,260,Wunderground v.1.15,2013-11-18 19:06:00,
2013-11-18 14:07:00,66.8,39.0,29.63,West,267,3.0,14.0,36,0.00,,,0.21,200,Wunderground v.1.15,2013-11-18 19:07:00,
2013-11-18 14:09:00,66.8,39.0,29.63,West,261,9.0,14.0,36,0.00,,,0.21,185,Wunderground v.1.15,2013-11-18 19:09:00,
2013-11-18 14:10:00,66.8,39.0,29.63,NW,315,0.0,6.0,36,0.00,,,0.21,151,Wunderground v.1.15,2013-11-18 19:10:00,
2013-11-18 14:11:00,66.7,38.9,29.63,WNW,299,7.0,8.0,36,0.00,,,0.21,127,Wunderground v.1.15,2013-11-18 19:11:00,
2013-11-18 14:12:00,66.7,38.9,29.63,West,272,3.0,9.0,36,0.00,,,0.21,127,Wunderground v.1.15,2013-11-18 19:12:00,
2013-11-18 14:14:00,66.7,38.9,29.63,NW,319,5.0,14.0,36,0.00,,,0.21,81,Wunderground v.1.15,2013-11-18 19:14:00,
2013-11-18 14:15:00,66.6,38.8,29.63,West,269,8.0,14.0,36,0.00,,,0.21,70,Wunderground v.1.15,2013-11-18 19:15:00,
2013-11-18 14:16:00,66.6,38.1,29.63,West,277,5.0,14.0,35,0.00,,,0.21,65,Wunderground v.1.15,2013-11-18 19:16:00,
2013-11-18 14:17:00,66.6,38.1,29.63,West,260,3.0,14.0,35,0.00,,,0.21,74,Wunderground v.1.15,2013-11-18 19:17:00,
2013-11-18 14:19:00,66.6,38.1,29.63,WNW,301,0.0,14.0,35,0.00,,,0.21,90,Wunderground v.1.15,2013-11-18 19:19:00,
2013-11-18 14:21:00,66.5,38.7,29.63,NNW,328,10.0,14.0,36,0.00,,,0.21,109,Wunderground v.1.15,2013-11-18 19:21:00,
2013-11-18 14:22:00,66.5,38.7,29.63,NW,323,10.0,14.0,36,0.00,,,0.21,146,Wunderground v.1.15,2013-11-18 19:22:00,
2013-11-18 14:24:00,66.5,38.7,29.63,NW,305,3.0,14.0,36,0.00,,,0.21,139,Wunderground v.1.15,2013-11-18 19:24:00,
2013-11-18 14:26:00,66.4,38.6,29.63,WNW,299,1.0,14.0,36,0.00,,,0.21,77,Wunderground v.1.15,2013-11-18 19:26:00,
2013-11-18 14:28:00,66.4,38.6,29.63,WNW,300,11.0,14.0,36,0.00,,,0.21,47,Wunderground v.1.15,2013-11-18 19:28:00,
2013-11-18 14:29:00,66.4,38.6,29.63,WNW,303,5.0,14.0,36,0.00,,,0.21,53,Wunderground v.1.15,2013-11-18 19:29:00,
2013-11-18 14:31:00,66.3,38.5,29.63,West,281,5.0,13.0,36,0.00,,,0.21,76,Wunderground v.1.15,2013-11-18 19:31:00,
2013-11-18 14:33:00,66.3,38.5,29.63,SW,235,8.0,13.0,36,0.00,,,0.21,60,Wunderground v.1.15,2013-11-18 19:33:00,
2013-11-18 14:34:00,66.3,38.5,29.63,NW,317,0.0,13.0,36,0.00,,,0.21,69,Wunderground v.1.15,2013-11-18 19:34:00,
2013-11-18 14:35:00,66.2,38.4,29.63,WNW,298,6.0,13.0,36,0.00,,,0.21,70,Wunderground v.1.15,2013-11-18 19:35:00,
2013-11-18 14:38:00,66.2,37.7,29.63,NW,309,5.0,14.0,35,0.00,,,0.21,60,Wunderground v.1.15,2013-11-18 19:38:00,
2013-11-18 14:39:00,66.2,38.4,29.63,WNW,291,2.0,14.0,36,0.00,,,0.21,116,Wunderground v.1.15,2013-11-18 19:39:00,
2013-11-18 14:40:00,66.2,38.4,29.63,WNW,292,0.0,6.0,36,0.00,,,0.21,116,Wunderground v.1.15,2013-11-18 19:40:00,
2013-11-18 14:43:00,66.2,38.4,29.63,WSW,255,3.0,8.0,36,0.00,,,0.21,84,Wunderground v.1.15,2013-11-18 19:43:00,
2013-11-18 14:44:00,66.1,39.1,29.63,WNW,299,4.0,14.0,37,0.00,,,0.21,44,Wunderground v.1.15,2013-11-18 19:44:00,
2013-11-18 14:45:00,66.1,38.4,29.63,WNW,300,3.0,14.0,36,0.00,,,0.21,44,Wunderground v.1.15,2013-11-18 19:45:00,
2013-11-18 14:48:00,66.1,39.1,29.63,WNW,291,6.0,14.0,37,0.00,,,0.21,54,Wunderground v.1.15,2013-11-18 19:48:00,
2013-11-18 14:49:00,66.1,39.1,29.63,West,272,6.0,14.0,37,0.00,,,0.21,63,Wunderground v.1.15,2013-11-18 19:49:00,
2013-11-18 14:50:00,66.0,38.3,29.64,WNW,303,6.0,6.0,36,0.00,,,0.21,74,Wunderground v.1.15,2013-11-18 19:50:00,
2013-11-18 14:52:00,66.0,39.0,29.63,WNW,292,4.0,11.0,37,0.00,,,0.21,51,Wunderground v.1.15,2013-11-18 19:52:00,
2013-11-18 14:54:00,65.9,38.2,29.64,NW,307,0.0,11.0,36,0.00,,,0.21,39,Wunderground v.1.15,2013-11-18 19:54:00,
2013-11-18 14:55:00,65.9,38.2,29.64,WNW,296,0.0,11.0,36,0.00,,,0.21,44,Wunderground v.1.15,2013-11-18 19:55:00,
2013-11-18 14:56:00,65.9,38.9,29.64,WNW,294,1.0,11.0,37,0.00,,,0.21,69,Wunderground v.1.15,2013-11-18 19:56:00,
2013-11-18 14:57:00,65.9,38.9,29.64,NW,305,5.0,11.0,37,0.00,,,0.21,62,Wunderground v.1.15,2013-11-18 19:57:00,
2013-11-18 14:59:00,65.9,38.2,29.64,WNW,289,5.0,11.0,36,0.00,,,0.21,56,Wunderground v.1.15,2013-11-18 19:59:00,
2013-11-18 15:00:00,65.8,38.1,29.64,NW,308,5.0,8.0,36,0.00,,,0.21,49,Wunderground v.1.15,2013-11-18 20:00:00,
2013-11-18 15:01:00,65.8,38.1,29.64,WNW,296,3.0,8.0,36,0.00,,,0.21,39,Wunderground v.1.15,2013-11-18 20:01:00,
2013-11-18 15:03:00,65.7,38.0,29.64,WNW,282,9.0,15.0,36,0.00,,,0.21,62,Wunderground v.1.15,2013-11-18 20:03:00,
2013-11-18 15:04:00,65.6,37.9,29.64,NW,304,0.0,15.0,36,0.00,,,0.21,30,Wunderground v.1.15,2013-11-18 20:04:00,
2013-11-18 15:05:00,65.6,37.9,29.64,NW,322,2.0,15.0,36,0.00,,,0.21,28,Wunderground v.1.15,2013-11-18 20:05:00,
2013-11-18 15:06:00,65.6,37.9,29.64,NNW,346,4.0,15.0,36,0.00,,,0.21,35,Wunderground v.1.15,2013-11-18 20:06:00,
2013-11-18 15:07:00,65.5,37.1,29.64,NW,314,4.0,15.0,35,0.00,,,0.21,47,Wunderground v.1.15,2013-11-18 20:07:00,
2013-11-18 15:08:00,65.5,37.1,29.64,WNW,294,8.0,16.0,35,0.00,,,0.21,42,Wunderground v.1.15,2013-11-18 20:08:00,
2013-11-18 15:10:00,65.3,36.2,29.64,West,278,5.0,6.0,34,0.00,,,0.21,65,Wunderground v.1.15,2013-11-18 20:10:00,
2013-11-18 15:11:00,65.3,36.2,29.64,West,280,0.0,7.0,34,0.00,,,0.21,53,Wunderground v.1.15,2013-11-18 20:11:00,
2013-11-18 15:12:00,65.2,36.1,29.64,WNW,284,13.0,13.0,34,0.00,,,0.21,37,Wunderground v.1.15,2013-11-18 20:12:00,
2013-11-18 15:13:00,65.2,35.4,29.64,NNW,338,0.0,15.0,33,0.00,,,0.21,30,Wunderground v.1.15,2013-11-18 20:13:00,
2013-11-18 15:15:00,65.1,34.5,29.64,WNW,300,3.0,15.0,32,0.00,,,0.21,39,Wunderground v.1.15,2013-11-18 20:15:00,
2013-11-18 15:16:00,65.1,34.5,29.64,WNW,282,6.0,15.0,32,0.00,,,0.21,39,Wunderground v.1.15,2013-11-18 20:16:00,
2013-11-18 15:17:00,65.1,34.5,29.64,WNW,293,6.0,15.0,32,0.00,,,0.21,49,Wunderground v.1.15,2013-11-18 20:17:00,
2013-11-18 15:18:00,65.0,34.4,29.64,NW,313,11.0,15.0,32,0.00,,,0.21,46,Wunderground v.1.15,2013-11-18 20:18:00,
2013-11-18 15:21:00,65.0,33.6,29.64,NNW,327,7.0,12.0,31,0.00,,,0.21,26,Wunderground v.1.15,2013-11-18 20:21:00,
2013-11-18 15:22:00,64.9,33.5,29.65,WNW,293,2.0,17.0,31,0.00,,,0.21,26,Wunderground v.1.15,2013-11-18 20:22:00,
2013-11-18 15:23:00,64.9,33.5,29.65,NW,323,9.0,17.0,31,0.00,,,0.21,25,Wunderground v.1.15,2013-11-18 20:23:00,
2013-11-18 15:26:00,64.8,33.4,29.65,WNW,298,3.0,19.0,31,0.00,,,0.21,26,Wunderground v.1.15,2013-11-18 20:26:00,
2013-11-18 15:27:00,64.8,33.4,29.65,NW,322,1.0,19.0,31,0.00,,,0.21,25,Wunderground v.1.15,2013-11-18 20:27:00,
2013-11-18 15:28:00,64.8,34.2,29.65,NW,316,0.0,19.0,32,0.00,,,0.21,26,Wunderground v.1.15,2013-11-18 20:28:00,
2013-11-18 15:31:00,64.7,34.1,29.65,NW,308,4.0,7.0,32,0.00,,,0.21,46,Wunderground v.1.15,2013-11-18 20:31:00,
2013-11-18 15:32:00,64.7,34.1,29.65,NW,319,0.0,7.0,32,0.00,,,0.21,40,Wunderground v.1.15,2013-11-18 20:32:00,
2013-11-18 15:33:00,64.6,34.1,29.65,NW,325,1.0,7.0,32,0.00,,,0.21,47,Wunderground v.1.15,2013-11-18 20:33:00,
2013-11-18 15:36:00,64.4,34.6,29.65,NW,305,0.0,7.0,33,0.00,,,0.21,44,Wunderground v.1.15,2013-11-18 20:36:00,
2013-11-18 15:37:00,64.4,34.6,29.65,NW,305,0.0,7.0,33,0.00,,,0.21,44,Wunderground v.1.15,2013-11-18 20:37:00,
2013-11-18 15:38:00,64.4,34.6,29.65,NW,312,0.0,7.0,33,0.00,,,0.21,30,Wunderground v.1.15,2013-11-18 20:38:00,
2013-11-18 15:41:00,64.2,35.2,29.65,WNW,301,2.0,9.0,34,0.00,,,0.21,25,Wunderground v.1.15,2013-11-18 20:41:00,
2013-11-18 15:42:00,64.2,35.2,29.65,WNW,301,0.0,9.0,34,0.00,,,0.21,25,Wunderground v.1.15,2013-11-18 20:42:00,
2013-11-18 15:43:00,64.2,35.2,29.65,WNW,296,6.0,9.0,34,0.00,,,0.21,25,Wunderground v.1.15,2013-11-18 20:43:00,
2013-11-18 15:44:00,64.2,35.2,29.65,West,281,7.0,9.0,34,0.00,,,0.21,25,Wunderground v.1.15,2013-11-18 20:44:00,
2013-11-18 15:47:00,64.1,35.1,29.65,West,279,4.0,10.0,34,0.00,,,0.21,23,Wunderground v.1.15,2013-11-18 20:47:00,
2013-11-18 15:49:00,64.0,35.0,29.65,WNW,300,0.0,10.0,34,0.00,,,0.21,19,Wunderground v.1.15,2013-11-18 20:49:00,
2013-11-18 15:52:00,63.9,35.0,29.65,NW,309,0.0,7.0,34,0.00,,,0.21,19,Wunderground v.1.15,2013-11-18 20:52:00,
2013-11-18 15:53:00,63.9,35.0,29.65,NW,309,8.0,8.0,34,0.00,,,0.21,19,Wunderground v.1.15,2013-11-18 20:53:00,
2013-11-18 15:54:00,63.8,34.9,29.66,West,271,1.0,8.0,34,0.00,,,0.21,19,Wunderground v.1.15,2013-11-18 20:54:00,
2013-11-18 15:55:00,63.8,34.9,29.66,WNW,287,4.0,8.0,34,0.00,,,0.21,18,Wunderground v.1.15,2013-11-18 20:55:00,
2013-11-18 15:57:00,63.8,34.9,29.66,WNW,302,0.0,8.0,34,0.00,,,0.21,18,Wunderground v.1.15,2013-11-18 20:57:00,
2013-11-18 15:58:00,63.7,35.5,29.66,WNW,301,0.0,8.0,35,0.00,,,0.21,18,Wunderground v.1.15,2013-11-18 20:58:00,
2013-11-18 15:59:00,63.7,35.5,29.66,WNW,299,0.0,8.0,35,0.00,,,0.21,18,Wunderground v.1.15,2013-11-18 20:59:00,
2013-11-18 16:00:00,63.7,35.5,29.66,NW,310,5.0,5.0,35,0.00,,,0.21,18,Wunderground v.1.15,2013-11-18 21:00:00,
2013-11-18 16:01:00,63.6,35.4,29.66,WNW,298,0.0,7.0,35,0.00,,,0.21,16,Wunderground v.1.15,2013-11-18 21:01:00,
2013-11-18 16:02:00,63.6,35.4,29.66,NNW,336,0.0,7.0,35,0.00,,,0.21,16,Wunderground v.1.15,2013-11-18 21:02:00,
2013-11-18 16:04:00,63.5,35.3,29.66,WNW,288,1.0,7.0,35,0.00,,,0.21,16,Wunderground v.1.15,2013-11-18 21:04:00,
2013-11-18 16:05:00,63.5,35.3,29.66,WNW,286,0.0,7.0,35,0.00,,,0.21,16,Wunderground v.1.15,2013-11-18 21:05:00,
2013-11-18 16:06:00,63.5,35.3,29.66,WNW,298,2.0,7.0,35,0.00,,,0.21,16,Wunderground v.1.15,2013-11-18 21:06:00,
2013-11-18 16:07:00,63.5,35.3,29.66,West,277,0.0,7.0,35,0.00,,,0.21,16,Wunderground v.1.15,2013-11-18 21:07:00,
2013-11-18 16:08:00,63.4,35.2,29.66,WNW,302,0.0,7.0,35,0.00,,,0.21,14,Wunderground v.1.15,2013-11-18 21:08:00,
2013-11-18 16:10:00,63.3,35.9,29.66,NW,311,0.0,6.0,36,0.00,,,0.21,14,Wunderground v.1.15,2013-11-18 21:10:00,
2013-11-18 16:11:00,63.3,35.9,29.66,West,268,6.0,6.0,36,0.00,,,0.21,14,Wunderground v.1.15,2013-11-18 21:11:00,
2013-11-18 16:12:00,63.2,35.8,29.66,West,281,3.0,6.0,36,0.00,,,0.21,14,Wunderground v.1.15,2013-11-18 21:12:00,
2013-11-18 16:13:00,63.2,35.1,29.66,WNW,298,3.0,10.0,35,0.00,,,0.21,12,Wunderground v.1.15,2013-11-18 21:13:00,
2013-11-18 16:16:00,63.0,35.6,29.66,WNW,300,2.0,10.0,36,0.00,,,0.21,12,Wunderground v.1.15,2013-11-18 21:16:00,
2013-11-18 16:17:00,63.0,35.6,29.66,WNW,285,0.0,10.0,36,0.00,,,0.21,11,Wunderground v.1.15,2013-11-18 21:17:00,
2013-11-18 16:18:00,62.9,35.5,29.66,WNW,285,0.0,10.0,36,0.00,,,0.21,11,Wunderground v.1.15,2013-11-18 21:18:00,
2013-11-18 16:21:00,62.8,35.4,29.66,West,269,0.0,5.0,36,0.00,,,0.21,11,Wunderground v.1.15,2013-11-18 21:21:00,
2013-11-18 16:22:00,62.8,35.4,29.66,West,269,0.0,5.0,36,0.00,,,0.21,9,Wunderground v.1.15,2013-11-18 21:22:00,
2013-11-18 16:23:00,62.7,35.3,29.66,West,278,0.0,5.0,36,0.00,,,0.21,9,Wunderground v.1.15,2013-11-18 21:23:00,
2013-11-18 16:26:00,62.6,35.9,29.67,WNW,288,0.0,6.0,37,0.00,,,0.21,7,Wunderground v.1.15,2013-11-18 21:26:00,
2013-11-18 16:27:00,62.6,35.9,29.67,WNW,301,0.0,6.0,37,0.00,,,0.21,7,Wunderground v.1.15,2013-11-18 21:27:00,
2013-11-18 16:28:00,62.6,35.9,29.67,WNW,301,0.0,6.0,37,0.00,,,0.21,7,Wunderground v.1.15,2013-11-18 21:28:00,
2013-11-18 16:32:00,62.5,35.9,29.67,WNW,295,0.0,1.0,37,0.00,,,0.21,5,Wunderground v.1.15,2013-11-18 21:32:00,
2013-11-18 16:33:00,62.4,35.8,29.67,West,276,0.0,4.0,37,0.00,,,0.21,5,Wunderground v.1.15,2013-11-18 21:33:00,
2013-11-18 16:34:00,62.4,35.8,29.67,West,276,0.0,4.0,37,0.00,,,0.21,5,Wunderground v.1.15,2013-11-18 21:34:00,
2013-11-18 16:37:00,62.2,35.6,29.67,WNW,288,0.0,4.0,37,0.00,,,0.21,0,Wunderground v.1.15,2013-11-18 21:37:00,
2013-11-18 16:38:00,62.2,35.6,29.67,WNW,290,0.0,4.0,37,0.00,,,0.21,0,Wunderground v.1.15,2013-11-18 21:38:00,
2013-11-18 16:39:00,62.2,35.6,29.67,NW,304,0.0,4.0,37,0.00,,,0.21,0,Wunderground v.1.15,2013-11-18 21:39:00,
2013-11-18 16:40:00,62.1,35.5,29.67,WNW,296,1.0,1.0,37,0.00,,,0.21,0,Wunderground v.1.15,2013-11-18 21:40:00,
2013-11-18 16:43:00,61.9,35.3,29.68,WNW,296,0.0,3.0,37,0.00,,,0.21,0,Wunderground v.1.15,2013-11-18 21:43:00,
2013-11-18 16:44:00,61.9,35.3,29.68,WNW,296,0.0,3.0,37,0.00,,,0.21,0,Wunderground v.1.15,2013-11-18 21:44:00,
2013-11-18 16:46:00,61.8,35.2,29.68,WNW,295,0.0,3.0,37,0.00,,,0.21,0,Wunderground v.1.15,2013-11-18 21:46:00,
2013-11-18 16:48:00,61.7,35.8,29.68,WNW,296,0.0,3.0,38,0.00,,,0.21,0,Wunderground v.1.15,2013-11-18 21:48:00,
2013-11-18 16:49:00,61.7,35.8,29.68,WNW,296,0.0,3.0,38,0.00,,,0.21,0,Wunderground v.1.15,2013-11-18 21:49:00,
2013-11-18 16:51:00,61.5,35.6,29.68,WNW,296,0.0,2.0,38,0.00,,,0.21,0,Wunderground v.1.15,2013-11-18 21:51:00,
2013-11-18 16:53:00,61.4,35.5,29.69,WNW,295,0.0,2.0,38,0.00,,,0.21,0,Wunderground v.1.15,2013-11-18 21:53:00,
2013-11-18 16:54:00,61.4,35.5,29.68,WNW,295,0.0,2.0,38,0.00,,,0.21,0,Wunderground v.1.15,2013-11-18 21:54:00,
2013-11-18 16:55:00,61.3,35.5,29.68,WNW,294,0.0,11.0,38,0.00,,,0.21,0,Wunderground v.1.15,2013-11-18 21:55:00,
2013-11-18 16:58:00,61.2,35.4,29.68,WNW,297,0.0,11.0,38,0.00,,,0.21,0,Wunderground v.1.15,2013-11-18 21:58:00,
2013-11-18 16:59:00,61.1,35.3,29.69,WNW,286,0.0,11.0,38,0.00,,,0.21,0,Wunderground v.1.15,2013-11-18 21:59:00,
2013-11-18 17:00:00,61.0,35.2,29.69,WNW,286,0.0,1.0,38,0.00,,,0.21,0,Wunderground v.1.15,2013-11-18 22:00:00,
2013-11-18 17:03:00,60.8,35.0,29.69,WNW,291,3.0,8.0,38,0.00,,,0.21,0,Wunderground v.1.15,2013-11-18 22:03:00,
2013-11-18 17:04:00,60.7,34.9,29.69,WNW,298,0.0,8.0,38,0.00,,,0.21,0,Wunderground v.1.15,2013-11-18 22:04:00,
2013-11-18 17:05:00,60.6,34.8,29.69,NW,306,6.0,8.0,38,0.00,,,0.21,0,Wunderground v.1.15,2013-11-18 22:05:00,
2013-11-18 17:06:00,60.6,34.8,29.69,West,271,0.0,8.0,38,0.00,,,0.21,0,Wunderground v.1.15,2013-11-18 22:06:00,
2013-11-18 17:08:00,60.5,34.7,29.69,NW,308,2.0,13.0,38,0.00,,,0.21,0,Wunderground v.1.15,2013-11-18 22:08:00,
2013-11-18 17:09:00,60.5,34.7,29.69,WNW,284,0.0,13.0,38,0.00,,,0.21,0,Wunderground v.1.15,2013-11-18 22:09:00,
2013-11-18 17:10:00,60.4,34.7,29.69,WNW,285,0.0,3.0,38,0.00,,,0.21,0,Wunderground v.1.15,2013-11-18 22:10:00,
2013-11-18 17:12:00,60.4,34.7,29.69,NW,310,0.0,3.0,38,0.00,,,0.21,0,Wunderground v.1.15,2013-11-18 22:12:00,
2013-11-18 17:14:00,60.3,34.6,29.69,WNW,298,1.0,5.0,38,0.00,,,0.21,0,Wunderground v.1.15,2013-11-18 22:14:00,
2013-11-18 17:15:00,60.3,34.6,29.69,WNW,298,0.0,5.0,38,0.00,,,0.21,0,Wunderground v.1.15,2013-11-18 22:15:00,
2013-11-18 17:16:00,60.3,34.6,29.69,WNW,298,0.0,5.0,38,0.00,,,0.21,0,Wunderground v.1.15,2013-11-18 22:16:00,
2013-11-18 17:17:00,60.3,34.6,29.70,WNW,298,0.0,5.0,38,0.00,,,0.21,0,Wunderground v.1.15,2013-11-18 22:17:00,
2013-11-18 17:19:00,60.2,35.1,29.70,WNW,298,0.0,5.0,39,0.00,,,0.21,0,Wunderground v.1.15,2013-11-18 22:19:00,
2013-11-18 17:20:00,60.2,35.1,29.70,WNW,292,2.0,2.0,39,0.00,,,0.21,0,Wunderground v.1.15,2013-11-18 22:20:00,
2013-11-18 17:21:00,60.2,34.5,29.70,WNW,292,0.0,2.0,38,0.00,,,0.21,0,Wunderground v.1.15,2013-11-18 22:21:00,
2013-11-18 17:22:00,60.1,34.4,29.70,WNW,292,0.0,2.0,38,0.00,,,0.21,0,Wunderground v.1.15,2013-11-18 22:22:00,
2013-11-18 17:24:00,60.0,34.3,29.70,WNW,290,0.0,5.0,38,0.00,,,0.21,0,Wunderground v.1.15,2013-11-18 22:24:00,
2013-11-18 17:25:00,60.0,34.3,29.70,WNW,290,0.0,5.0,38,0.00,,,0.21,0,Wunderground v.1.15,2013-11-18 22:25:00,
2013-11-18 17:26:00,60.0,34.3,29.70,WNW,290,0.0,5.0,38,0.00,,,0.21,0,Wunderground v.1.15,2013-11-18 22:26:00,
2013-11-18 17:27:00,59.9,34.2,29.70,WNW,290,0.0,5.0,38,0.00,,,0.21,0,Wunderground v.1.15,2013-11-18 22:27:00,
2013-11-18 17:29:00,59.9,34.9,29.70,WNW,290,0.0,5.0,39,0.00,,,0.21,0,Wunderground v.1.15,2013-11-18 22:29:00,
2013-11-18 17:30:00,59.8,34.8,29.70,WNW,290,0.0,0.0,39,0.00,,,0.21,0,Wunderground v.1.15,2013-11-18 22:30:00,
2013-11-18 17:31:00,59.7,34.7,29.70,WNW,290,0.0,0.0,39,0.00,,,0.21,0,Wunderground v.1.15,2013-11-18 22:31:00,
2013-11-18 17:32:00,59.7,34.7,29.70,WNW,290,0.0,0.0,39,0.00,,,0.21,0,Wunderground v.1.15,2013-11-18 22:32:00,
2013-11-18 17:34:00,59.6,33.9,29.70,WNW,290,0.0,0.0,38,0.00,,,0.21,0,Wunderground v.1.15,2013-11-18 22:34:00,
2013-11-18 17:35:00,59.6,34.6,29.70,WNW,288,0.0,3.0,39,0.00,,,0.21,0,Wunderground v.1.15,2013-11-18 22:35:00,
2013-11-18 17:36:00,59.6,34.6,29.70,WNW,288,1.0,3.0,39,0.00,,,0.21,0,Wunderground v.1.15,2013-11-18 22:36:00,
2013-11-18 17:37:00,59.5,34.5,29.70,WNW,288,0.0,3.0,39,0.00,,,0.21,0,Wunderground v.1.15,2013-11-18 22:37:00,
2013-11-18 17:39:00,59.5,34.5,29.70,WNW,288,0.0,3.0,39,0.00,,,0.21,0,Wunderground v.1.15,2013-11-18 22:39:00,
2013-11-18 17:41:00,59.4,34.4,29.70,WNW,288,0.0,0.0,39,0.00,,,0.21,0,Wunderground v.1.15,2013-11-18 22:41:00,
2013-11-18 17:42:00,59.3,34.3,29.70,WNW,288,0.0,0.0,39,0.00,,,0.21,0,Wunderground v.1.15,2013-11-18 22:42:00,
2013-11-18 17:43:00,59.3,34.3,29.70,WNW,288,0.0,0.0,39,0.00,,,0.21,0,Wunderground v.1.15,2013-11-18 22:43:00,
2013-11-18 17:44:00,59.3,34.3,29.70,WNW,288,0.0,0.0,39,0.00,,,0.21,0,Wunderground v.1.15,2013-11-18 22:44:00,
2013-11-18 17:46:00,59.2,34.9,29.70,WNW,288,0.0,0.0,40,0.00,,,0.21,0,Wunderground v.1.15,2013-11-18 22:46:00,
2013-11-18 17:47:00,59.1,34.8,29.70,WNW,288,0.0,0.0,40,0.00,,,0.21,0,Wunderground v.1.15,2013-11-18 22:47:00,
2013-11-18 17:48:00,59.1,34.8,29.71,WNW,288,0.0,0.0,40,0.00,,,0.21,0,Wunderground v.1.15,2013-11-18 22:48:00,
2013-11-18 17:50:00,59.0,34.7,29.71,WNW,288,0.0,0.0,40,0.00,,,0.21,0,Wunderground v.1.15,2013-11-18 22:50:00,
2013-11-18 17:51:00,58.9,34.6,29.71,WNW,288,0.0,0.0,40,0.00,,,0.21,0,Wunderground v.1.15,2013-11-18 22:51:00,
2013-11-18 17:52:00,58.9,35.2,29.71,WNW,288,0.0,0.0,41,0.00,,,0.21,0,Wunderground v.1.15,2013-11-18 22:52:00,
2013-11-18 17:53:00,58.9,35.2,29.71,WNW,288,0.0,0.0,41,0.00,,,0.21,0,Wunderground v.1.15,2013-11-18 22:53:00,
2013-11-18 17:54:00,58.8,35.1,29.71,WNW,288,0.0,0.0,41,0.00,,,0.21,0,Wunderground v.1.15,2013-11-18 22:54:00,
2013-11-18 17:55:00,58.8,35.1,29.71,WNW,288,0.0,0.0,41,0.00,,,0.21,0,Wunderground v.1.15,2013-11-18 22:55:00,
2013-11-18 17:56:00,58.7,35.0,29.71,WNW,288,0.0,0.0,41,0.00,,,0.21,0,Wunderground v.1.15,2013-11-18 22:56:00,
2013-11-18 17:58:00,58.6,35.0,29.71,WNW,288,0.0,0.0,41,0.00,,,0.21,0,Wunderground v.1.15,2013-11-18 22:58:00,
2013-11-18 18:01:00,58.5,34.9,29.71,WNW,288,1.0,2.0,41,0.00,,,0.21,0,Wunderground v.1.15,2013-11-18 23:01:00,
2013-11-18 18:02:00,58.4,34.8,29.71,WNW,288,0.0,2.0,41,0.00,,,0.21,0,Wunderground v.1.15,2013-11-18 23:02:00,
2013-11-18 18:03:00,58.3,35.3,29.71,WNW,288,0.0,2.0,42,0.00,,,0.21,0,Wunderground v.1.15,2013-11-18 23:03:00,
2013-11-18 18:04:00,58.2,35.2,29.71,WNW,288,0.0,2.0,42,0.00,,,0.21,0,Wunderground v.1.15,2013-11-18 23:04:00,
2013-11-18 18:06:00,58.0,35.0,29.71,WNW,288,0.0,2.0,42,0.00,,,0.21,0,Wunderground v.1.15,2013-11-18 23:06:00,
2013-11-18 18:07:00,58.0,35.0,29.72,WNW,288,0.0,2.0,42,0.00,,,0.21,0,Wunderground v.1.15,2013-11-18 23:07:00,
2013-11-18 18:08:00,57.9,34.9,29.72,WNW,288,0.0,2.0,42,0.00,,,0.21,0,Wunderground v.1.15,2013-11-18 23:08:00,
2013-11-18 18:09:00,57.9,34.9,29.72,WNW,288,0.0,2.0,42,0.00,,,0.21,0,Wunderground v.1.15,2013-11-18 23:09:00,
2013-11-18 18:10:00,57.8,34.8,29.72,WNW,288,0.0,0.0,42,0.00,,,0.21,0,Wunderground v.1.15,2013-11-18 23:10:00,
2013-11-18 18:11:00,57.7,34.7,29.72,WNW,288,0.0,0.0,42,0.00,,,0.21,0,Wunderground v.1.15,2013-11-18 23:11:00,
2013-11-18 18:12:00,57.7,34.7,29.72,WNW,288,0.0,0.0,42,0.00,,,0.21,0,Wunderground v.1.15,2013-11-18 23:12:00,
2013-11-18 18:14:00,57.6,34.7,29.72,WNW,288,0.0,0.0,42,0.00,,,0.21,0,Wunderground v.1.15,2013-11-18 23:14:00,
2013-11-18 18:15:00,57.5,35.2,29.72,WNW,288,0.0,0.0,43,0.00,,,0.21,0,Wunderground v.1.15,2013-11-18 23:15:00,
2013-11-18 18:16:00,57.4,35.1,29.72,WNW,288,0.0,3.0,43,0.00,,,0.21,0,Wunderground v.1.15,2013-11-18 23:16:00,
2013-11-18 18:17:00,57.4,35.1,29.72,WNW,288,0.0,3.0,43,0.00,,,0.21,0,Wunderground v.1.15,2013-11-18 23:17:00,
2013-11-18 18:19:00,57.3,35.0,29.72,WNW,288,0.0,3.0,43,0.00,,,0.21,0,Wunderground v.1.15,2013-11-18 23:19:00,
2013-11-18 18:20:00,57.2,34.9,29.72,WNW,288,0.0,0.0,43,0.00,,,0.21,0,Wunderground v.1.15,2013-11-18 23:20:00,
2013-11-18 18:21:00,57.1,34.8,29.72,WNW,288,0.0,0.0,43,0.00,,,0.21,0,Wunderground v.1.15,2013-11-18 23:21:00,
2013-11-18 18:22:00,57.1,34.8,29.72,WNW,288,0.0,0.0,43,0.00,,,0.21,0,Wunderground v.1.15,2013-11-18 23:22:00,
2013-11-18 18:24:00,57.0,34.7,29.72,WNW,288,0.0,0.0,43,0.00,,,0.21,0,Wunderground v.1.15,2013-11-18 23:24:00,
2013-11-18 18:25:00,56.9,34.6,29.72,WNW,288,0.0,0.0,43,0.00,,,0.21,0,Wunderground v.1.15,2013-11-18 23:25:00,
2013-11-18 18:26:00,56.8,34.5,29.72,WNW,288,0.0,0.0,43,0.00,,,0.21,0,Wunderground v.1.15,2013-11-18 23:26:00,
2013-11-18 18:27:00,56.7,34.4,29.72,NW,306,0.0,5.0,43,0.00,,,0.21,0,Wunderground v.1.15,2013-11-18 23:27:00,
2013-11-18 18:28:00,56.7,35.0,29.72,NW,306,0.0,5.0,44,0.00,,,0.21,0,Wunderground v.1.15,2013-11-18 23:28:00,
2013-11-18 18:30:00,56.6,34.9,29.72,NW,306,0.0,0.0,44,0.00,,,0.21,0,Wunderground v.1.15,2013-11-18 23:30:00,
2013-11-18 18:31:00,56.4,34.7,29.72,NW,306,0.0,0.0,44,0.00,,,0.21,0,Wunderground v.1.15,2013-11-18 23:31:00,
2013-11-18 18:33:00,56.3,34.6,29.72,NW,306,0.0,0.0,44,0.00,,,0.21,0,Wunderground v.1.15,2013-11-18 23:33:00,
2013-11-18 18:35:00,56.2,34.6,29.72,NW,306,0.0,0.0,44,0.00,,,0.21,0,Wunderground v.1.15,2013-11-18 23:35:00,
2013-11-18 18:36:00,56.1,34.5,29.72,NW,306,0.0,1.0,44,0.00,,,0.21,0,Wunderground v.1.15,2013-11-18 23:36:00,
2013-11-18 18:37:00,56.1,34.5,29.72,WNW,302,0.0,4.0,44,0.00,,,0.21,0,Wunderground v.1.15,2013-11-18 23:37:00,
2013-11-18 18:39:00,55.9,34.3,29.72,WNW,302,0.0,4.0,44,0.00,,,0.21,0,Wunderground v.1.15,2013-11-18 23:39:00,
2013-11-18 18:40:00,55.9,34.3,29.72,WNW,302,0.0,0.0,44,0.00,,,0.21,0,Wunderground v.1.15,2013-11-18 23:40:00,
2013-11-18 18:41:00,55.9,34.3,29.72,WNW,302,0.0,0.0,44,0.00,,,0.21,0,Wunderground v.1.15,2013-11-18 23:41:00,
2013-11-18 18:42:00,55.8,34.2,29.72,WNW,302,0.0,0.0,44,0.00,,,0.21,0,Wunderground v.1.15,2013-11-18 23:42:00,
2013-11-18 18:44:00,55.7,34.7,29.72,WNW,302,0.0,0.0,45,0.00,,,0.21,0,Wunderground v.1.15,2013-11-18 23:44:00,
2013-11-18 18:45:00,55.7,34.7,29.72,WNW,302,0.0,0.0,45,0.00,,,0.21,0,Wunderground v.1.15,2013-11-18 23:45:00,
2013-11-18 18:46:00,55.6,34.6,29.72,WNW,302,0.0,0.0,45,0.00,,,0.21,0,Wunderground v.1.15,2013-11-18 23:46:00,
2013-11-18 18:47:00,55.6,34.6,29.72,WNW,302,0.0,0.0,45,0.00,,,0.21,0,Wunderground v.1.15,2013-11-18 23:47:00,
2013-11-18 18:49:00,55.5,34.5,29.72,WNW,302,0.0,0.0,45,0.00,,,0.21,0,Wunderground v.1.15,2013-11-18 23:49:00,
2013-11-18 18:50:00,55.4,34.4,29.72,WNW,302,0.0,0.0,45,0.00,,,0.21,0,Wunderground v.1.15,2013-11-18 23:50:00,
2013-11-18 18:51:00,55.3,34.3,29.72,WNW,302,0.0,0.0,45,0.00,,,0.21,0,Wunderground v.1.15,2013-11-18 23:51:00,
2013-11-18 18:52:00,55.3,34.3,29.72,WNW,302,0.0,0.0,45,0.00,,,0.21,0,Wunderground v.1.15,2013-11-18 23:52:00,
2013-11-18 18:54:00,55.2,34.8,29.72,WNW,302,0.0,0.0,46,0.00,,,0.21,0,Wunderground v.1.15,2013-11-18 23:54:00,
2013-11-18 18:55:00,55.2,34.8,29.72,WNW,302,0.0,0.0,46,0.00,,,0.21,0,Wunderground v.1.15,2013-11-18 23:55:00,
2013-11-18 18:57:00,55.1,34.7,29.72,WNW,302,0.0,0.0,46,0.00,,,0.21,0,Wunderground v.1.15,2013-11-18 23:57:00,
2013-11-18 19:00:00,55.0,34.6,29.72,WNW,302,0.0,0.0,46,0.00,,,0.21,0,Wunderground v.1.15,2013-11-19 00:00:00,
2013-11-18 19:01:00,54.9,34.5,29.72,WNW,302,0.0,0.0,46,0.00,,,0.21,0,Wunderground v.1.15,2013-11-19 00:01:00,
2013-11-18 19:02:00,54.8,34.4,29.72,WNW,302,0.0,0.0,46,0.00,,,0.21,0,Wunderground v.1.15,2013-11-19 00:02:00,
2013-11-18 19:03:00,54.8,34.4,29.72,WNW,302,0.0,0.0,46,0.00,,,0.21,0,Wunderground v.1.15,2013-11-19 00:03:00,
2013-11-18 19:21:00,53.9,34.1,29.72,WNW,302,0.0,0.0,47,0.00,,,0.21,0,Wunderground v.1.15,2013-11-19 00:21:00,
2013-11-18 19:22:00,53.9,34.1,29.72,WNW,302,0.0,0.0,47,0.00,,,0.21,0,Wunderground v.1.15,2013-11-19 00:22:00,
2013-11-18 19:55:00,52.9,34.2,29.73,WNW,302,0.0,0.0,49,0.00,,,0.21,0,Wunderground v.1.15,2013-11-19 00:55:00,
2013-11-18 19:56:00,52.9,34.2,29.73,WNW,302,0.0,0.0,49,0.00,,,0.21,0,Wunderground v.1.15,2013-11-19 00:56:00,
2013-11-18 19:57:00,52.9,34.2,29.73,WNW,302,0.0,0.0,49,0.00,,,0.21,0,Wunderground v.1.15,2013-11-19 00:57:00,
2013-11-18 19:58:00,52.9,34.2,29.73,WNW,302,0.0,0.0,49,0.00,,,0.21,0,Wunderground v.1.15,2013-11-19 00:58:00,
2013-11-18 20:05:00,52.6,34.0,29.73,WNW,302,0.0,0.0,49,0.00,,,0.21,0,Wunderground v.1.15,2013-11-19 01:05:00,
2013-11-18 20:12:00,52.3,33.7,29.74,WNW,302,0.0,0.0,49,0.00,,,0.21,0,Wunderground v.1.15,2013-11-19 01:12:00,
2013-11-18 20:13:00,52.3,33.7,29.74,WNW,302,0.0,0.0,49,0.00,,,0.21,0,Wunderground v.1.15,2013-11-19 01:13:00,
2013-11-18 20:14:00,52.3,34.2,29.74,WNW,302,2.0,2.0,50,0.00,,,0.21,0,Wunderground v.1.15,2013-11-19 01:14:00,
2013-11-18 20:18:00,52.2,33.6,29.74,WNW,302,0.0,3.0,49,0.00,,,0.21,0,Wunderground v.1.15,2013-11-19 01:18:00,
2013-11-18 20:19:00,52.2,33.6,29.74,WNW,302,0.0,3.0,49,0.00,,,0.21,0,Wunderground v.1.15,2013-11-19 01:19:00,
2013-11-18 20:23:00,52.1,33.5,29.74,WNW,302,0.0,0.0,49,0.00,,,0.21,0,Wunderground v.1.15,2013-11-19 01:23:00,
2013-11-18 20:24:00,52.1,33.5,29.74,WNW,302,0.0,0.0,49,0.00,,,0.21,0,Wunderground v.1.15,2013-11-19 01:24:00,
2013-11-18 20:28:00,51.9,33.3,29.74,WNW,302,1.0,4.0,49,0.00,,,0.21,0,Wunderground v.1.15,2013-11-19 01:28:00,
2013-11-18 20:29:00,51.9,33.3,29.74,WNW,302,0.0,4.0,49,0.00,,,0.21,0,Wunderground v.1.15,2013-11-19 01:29:00,
2013-11-18 20:30:00,51.9,33.3,29.74,WNW,302,0.0,4.0,49,0.00,,,0.21,0,Wunderground v.1.15,2013-11-19 01:30:00,
2013-11-18 20:34:00,51.8,33.2,29.74,WNW,302,0.0,1.0,49,0.00,,,0.21,0,Wunderground v.1.15,2013-11-19 01:34:00,
2013-11-18 20:36:00,51.7,33.6,29.74,WNW,302,0.0,1.0,50,0.00,,,0.21,0,Wunderground v.1.15,2013-11-19 01:36:00,
2013-11-18 20:39:00,51.7,33.6,29.75,WNW,302,0.0,1.0,50,0.00,,,0.21,0,Wunderground v.1.15,2013-11-19 01:39:00,
2013-11-18 20:40:00,51.7,33.6,29.75,WNW,302,0.0,1.0,50,0.00,,,0.21,0,Wunderground v.1.15,2013-11-19 01:40:00,
2013-11-18 20:44:00,51.6,33.6,29.75,WNW,302,0.0,0.0,50,0.00,,,0.21,0,Wunderground v.1.15,2013-11-19 01:44:00,
2013-11-18 20:45:00,51.6,33.6,29.75,WNW,302,0.0,0.0,50,0.00,,,0.21,0,Wunderground v.1.15,2013-11-19 01:45:00,
2013-11-18 20:46:00,51.5,33.5,29.75,WNW,302,0.0,0.0,50,0.00,,,0.21,0,Wunderground v.1.15,2013-11-19 01:46:00,
2013-11-18 20:49:00,51.4,33.9,29.75,WNW,302,0.0,5.0,51,0.00,,,0.21,0,Wunderground v.1.15,2013-11-19 01:49:00,
2013-11-18 20:50:00,51.4,33.9,29.75,WNW,302,0.0,5.0,51,0.00,,,0.21,0,Wunderground v.1.15,2013-11-19 01:50:00,
2013-11-18 20:51:00,51.4,34.3,29.75,WNW,302,0.0,5.0,52,0.00,,,0.21,0,Wunderground v.1.15,2013-11-19 01:51:00,
2013-11-18 20:55:00,51.2,34.2,29.75,WNW,302,0.0,3.0,52,0.00,,,0.21,0,Wunderground v.1.15,2013-11-19 01:55:00,
2013-11-18 20:56:00,51.2,34.2,29.75,WNW,302,0.0,3.0,52,0.00,,,0.21,0,Wunderground v.1.15,2013-11-19 01:56:00,
2013-11-18 20:58:00,51.1,34.1,29.75,WNW,302,0.0,3.0,52,0.00,,,0.21,0,Wunderground v.1.15,2013-11-19 01:58:00,
2013-11-18 21:00:00,51.0,34.0,29.75,WNW,302,0.0,0.0,52,0.00,,,0.21,0,Wunderground v.1.15,2013-11-19 02:00:00,
2013-11-18 21:01:00,51.0,34.0,29.76,NW,304,0.0,1.0,52,0.00,,,0.21,0,Wunderground v.1.15,2013-11-19 02:01:00,
2013-11-18 21:02:00,50.9,33.9,29.76,WNW,302,0.0,3.0,52,0.00,,,0.21,0,Wunderground v.1.15,2013-11-19 02:02:00,
2013-11-18 21:04:00,50.9,33.9,29.76,WNW,300,2.0,5.0,52,0.00,,,0.21,0,Wunderground v.1.15,2013-11-19 02:04:00,
2013-11-18 21:05:00,50.9,33.9,29.76,WNW,300,0.0,5.0,52,0.00,,,0.21,0,Wunderground v.1.15,2013-11-19 02:05:00,
2013-11-18 21:06:00,50.8,33.8,29.76,WNW,300,0.0,5.0,52,0.00,,,0.21,0,Wunderground v.1.15,2013-11-19 02:06:00,
2013-11-18 21:07:00,50.8,33.8,29.76,NW,319,3.0,11.0,52,0.00,,,0.21,0,Wunderground v.1.15,2013-11-19 02:07:00,
2013-11-18 21:09:00,50.8,33.8,29.76,NW,306,3.0,11.0,52,0.00,,,0.21,0,Wunderground v.1.15,2013-11-19 02:09:00,
2013-11-18 21:10:00,50.8,33.8,29.76,WNW,302,3.0,3.0,52,0.00,,,0.21,0,Wunderground v.1.15,2013-11-19 02:10:00,
2013-11-18 21:11:00,50.7,33.7,29.76,NW,311,0.0,6.0,52,0.00,,,0.21,0,Wunderground v.1.15,2013-11-19 02:11:00,
2013-11-18 21:13:00,50.7,33.7,29.76,NW,311,0.0,6.0,52,0.00,,,0.21,0,Wunderground v.1.15,2013-11-19 02:13:00,
2013-11-18 21:15:00,50.7,33.7,29.76,NW,308,0.0,6.0,52,0.00,,,0.21,0,Wunderground v.1.15,2013-11-19 02:15:00,
2013-11-18 21:16:00,50.7,33.7,29.76,NW,306,0.0,6.0,52,0.00,,,0.21,0,Wunderground v.1.15,2013-11-19 02:16:00,
2013-11-18 21:18:00,50.8,33.8,29.76,NW,305,1.0,6.0,52,0.00,,,0.21,0,Wunderground v.1.15,2013-11-19 02:18:00,
2013-11-18 21:20:00,50.8,33.3,29.76,NW,306,0.0,1.0,51,0.00,,,0.21,0,Wunderground v.1.15,2013-11-19 02:20:00,
2013-11-18 21:21:00,50.8,33.3,29.76,WNW,302,1.0,2.0,51,0.00,,,0.21,0,Wunderground v.1.15,2013-11-19 02:21:00,
2013-11-18 21:22:00,50.8,33.3,29.76,NNW,342,1.0,6.0,51,0.00,,,0.21,0,Wunderground v.1.15,2013-11-19 02:22:00,
2013-11-18 21:24:00,50.9,33.4,29.76,WNW,288,6.0,9.0,51,0.00,,,0.21,0,Wunderground v.1.15,2013-11-19 02:24:00,
2013-11-18 21:25:00,50.9,33.4,29.76,NNW,328,1.0,12.0,51,0.00,,,0.21,0,Wunderground v.1.15,2013-11-19 02:25:00,
2013-11-18 21:26:00,51.0,33.0,29.76,WNW,300,2.0,12.0,50,0.00,,,0.21,0,Wunderground v.1.15,2013-11-19 02:26:00,
2013-11-18 21:27:00,51.0,33.0,29.76,WNW,300,3.0,12.0,50,0.00,,,0.21,0,Wunderground v.1.15,2013-11-19 02:27:00,
2013-11-18 21:29:00,51.2,33.2,29.76,NW,312,0.0,12.0,50,0.00,,,0.21,0,Wunderground v.1.15,2013-11-19 02:29:00,
2013-11-18 21:30:00,51.2,33.2,29.76,NW,311,0.0,3.0,50,0.00,,,0.21,0,Wunderground v.1.15,2013-11-19 02:30:00,
2013-11-18 21:31:00,51.3,33.3,29.76,NW,311,0.0,3.0,50,0.00,,,0.21,0,Wunderground v.1.15,2013-11-19 02:31:00,
2013-11-18 21:33:00,51.4,33.4,29.76,NW,311,0.0,4.0,50,0.00,,,0.21,0,Wunderground v.1.15,2013-11-19 02:33:00,
2013-11-18 21:34:00,51.4,33.4,29.76,WNW,303,2.0,4.0,50,0.00,,,0.21,0,Wunderground v.1.15,2013-11-19 02:34:00,
2013-11-18 21:35:00,51.5,33.5,29.76,NW,319,0.0,4.0,50,0.00,,,0.21,0,Wunderground v.1.15,2013-11-19 02:35:00,
2013-11-18 21:36:00,51.5,33.5,29.76,NW,317,3.0,4.0,50,0.00,,,0.21,0,Wunderground v.1.15,2013-11-19 02:36:00,
2013-11-18 21:37:00,51.5,33.5,29.76,NW,314,4.0,4.0,50,0.00,,,0.21,0,Wunderground v.1.15,2013-11-19 02:37:00,
2013-11-18 21:39:00,51.6,33.0,29.76,NW,306,0.0,4.0,49,0.00,,,0.21,0,Wunderground v.1.15,2013-11-19 02:39:00,
2013-11-18 21:40:00,51.7,33.1,29.76,NW,306,0.0,1.0,49,0.00,,,0.21,0,Wunderground v.1.15,2013-11-19 02:40:00,
2013-11-18 21:41:00,51.7,33.1,29.76,NW,307,0.0,4.0,49,0.00,,,0.21,0,Wunderground v.1.15,2013-11-19 02:41:00,
2013-11-18 21:42:00,51.8,33.2,29.76,NW,306,0.0,5.0,49,0.00,,,0.21,0,Wunderground v.1.15,2013-11-19 02:42:00,
2013-11-18 21:44:00,51.9,33.3,29.76,NNW,327,0.0,5.0,49,0.00,,,0.21,0,Wunderground v.1.15,2013-11-19 02:44:00,
2013-11-18 21:45:00,51.9,33.3,29.76,NNW,327,1.0,5.0,49,0.00,,,0.21,0,Wunderground v.1.15,2013-11-19 02:45:00,
2013-11-18 21:46:00,51.9,33.3,29.76,NW,313,0.0,6.0,49,0.00,,,0.21,0,Wunderground v.1.15,2013-11-19 02:46:00,
2013-11-18 21:47:00,52.0,33.4,29.76,NW,313,0.0,6.0,49,0.00,,,0.21,0,Wunderground v.1.15,2013-11-19 02:47:00,
2013-11-18 21:49:00,52.0,33.4,29.76,NW,311,0.0,6.0,49,0.00,,,0.21,0,Wunderground v.1.15,2013-11-19 02:49:00,
2013-11-18 21:50:00,52.0,33.4,29.76,NW,311,1.0,2.0,49,0.00,,,0.21,0,Wunderground v.1.15,2013-11-19 02:50:00,
2013-11-18 21:51:00,52.1,33.0,29.76,NW,312,0.0,4.0,48,0.00,,,0.21,0,Wunderground v.1.15,2013-11-19 02:51:00,
2013-11-18 21:52:00,52.1,33.5,29.77,NW,315,1.0,4.0,49,0.00,,,0.21,0,Wunderground v.1.15,2013-11-19 02:52:00,
2013-11-18 21:53:00,52.1,33.5,29.77,NW,315,0.0,4.0,49,0.00,,,0.21,0,Wunderground v.1.15,2013-11-19 02:53:00,
2013-11-18 21:54:00,52.1,33.5,29.77,NW,315,0.0,4.0,49,0.00,,,0.21,0,Wunderground v.1.15,2013-11-19 02:54:00,
2013-11-18 21:55:00,52.2,33.6,29.77,NW,312,3.0,4.0,49,0.00,,,0.21,0,Wunderground v.1.15,2013-11-19 02:55:00,
2013-11-18 21:56:00,52.2,33.6,29.77,NW,311,0.0,4.0,49,0.00,,,0.21,0,Wunderground v.1.15,2013-11-19 02:56:00,
2013-11-18 21:57:00,52.2,33.6,29.77,NW,311,0.0,4.0,49,0.00,,,0.21,0,Wunderground v.1.15,2013-11-19 02:57:00,
2013-11-18 21:58:00,52.2,33.1,29.77,WNW,301,0.0,4.0,48,0.00,,,0.21,0,Wunderground v.1.15,2013-11-19 02:58:00,
2013-11-18 21:59:00,52.2,33.1,29.77,WNW,284,5.0,5.0,48,0.00,,,0.21,0,Wunderground v.1.15,2013-11-19 02:59:00,
2013-11-18 22:01:00,52.2,33.1,29.77,WNW,294,0.0,4.0,48,0.00,,,0.21,0,Wunderground v.1.15,2013-11-19 03:01:00,
2013-11-18 22:02:00,52.2,33.1,29.77,WNW,292,0.0,4.0,48,0.00,,,0.21,0,Wunderground v.1.15,2013-11-19 03:02:00,
2013-11-18 22:03:00,52.2,33.1,29.77,WNW,292,0.0,4.0,48,0.00,,,0.21,0,Wunderground v.1.15,2013-11-19 03:03:00,
2013-11-18 22:04:00,52.2,33.1,29.77,WNW,292,0.0,4.0,48,0.00,,,0.21,0,Wunderground v.1.15,2013-11-19 03:04:00,
2013-11-18 22:05:00,52.3,33.7,29.77,NW,319,3.0,8.0,49,0.00,,,0.21,0,Wunderground v.1.15,2013-11-19 03:05:00,
2013-11-18 22:06:00,52.2,33.1,29.77,NW,318,0.0,8.0,48,0.00,,,0.21,0,Wunderground v.1.15,2013-11-19 03:06:00,
2013-11-18 22:07:00,52.2,33.1,29.77,NW,309,0.0,8.0,48,0.00,,,0.21,0,Wunderground v.1.15,2013-11-19 03:07:00,
2013-11-18 22:09:00,52.2,33.1,29.77,NW,320,0.0,8.0,48,0.00,,,0.21,0,Wunderground v.1.15,2013-11-19 03:09:00,
2013-11-18 22:10:00,52.2,33.1,29.77,NW,319,0.0,1.0,48,0.00,,,0.21,0,Wunderground v.1.15,2013-11-19 03:10:00,
2013-11-18 22:11:00,52.2,33.1,29.77,WNW,287,0.0,4.0,48,0.00,,,0.21,0,Wunderground v.1.15,2013-11-19 03:11:00,
2013-11-18 22:13:00,52.2,33.1,29.77,WNW,284,2.0,12.0,48,0.00,,,0.21,0,Wunderground v.1.15,2013-11-19 03:13:00,
2013-11-18 22:14:00,52.2,33.1,29.77,NW,325,0.0,12.0,48,0.00,,,0.21,0,Wunderground v.1.15,2013-11-19 03:14:00,
2013-11-18 22:15:00,52.2,33.1,29.77,NNW,327,5.0,12.0,48,0.00,,,0.21,0,Wunderground v.1.15,2013-11-19 03:15:00,
2013-11-18 22:17:00,52.2,32.6,29.77,NW,311,0.0,12.0,47,0.00,,,0.21,0,Wunderground v.1.15,2013-11-19 03:17:00,
2013-11-18 22:18:00,52.3,33.2,29.77,NW,315,1.0,12.0,48,0.00,,,0.21,0,Wunderground v.1.15,2013-11-19 03:18:00,
2013-11-18 22:19:00,52.2,33.1,29.77,NW,316,0.0,12.0,48,0.00,,,0.21,0,Wunderground v.1.15,2013-11-19 03:19:00,
2013-11-18 22:20:00,52.3,33.2,29.77,WNW,291,0.0,3.0,48,0.00,,,0.21,0,Wunderground v.1.15,2013-11-19 03:20:00,
2013-11-18 22:21:00,52.2,33.1,29.77,NW,316,0.0,8.0,48,0.00,,,0.21,0,Wunderground v.1.15,2013-11-19 03:21:00,
2013-11-18 22:22:00,52.3,33.2,29.77,NW,318,0.0,8.0,48,0.00,,,0.21,0,Wunderground v.1.15,2013-11-19 03:22:00,
2013-11-18 22:24:00,52.3,33.2,29.77,WNW,302,0.0,9.0,48,0.00,,,0.21,0,Wunderground v.1.15,2013-11-19 03:24:00,
2013-11-18 22:25:00,52.3,33.2,29.77,WNW,292,2.0,9.0,48,0.00,,,0.21,0,Wunderground v.1.15,2013-11-19 03:25:00,
2013-11-18 22:26:00,52.3,32.6,29.77,NNW,338,0.0,9.0,47,0.00,,,0.21,0,Wunderground v.1.15,2013-11-19 03:26:00,
2013-11-18 22:27:00,52.3,32.6,29.77,NW,325,0.0,9.0,47,0.00,,,0.21,0,Wunderground v.1.15,2013-11-19 03:27:00,
2013-11-18 22:28:00,52.3,32.6,29.77,WNW,299,5.0,11.0,47,0.00,,,0.21,0,Wunderground v.1.15,2013-11-19 03:28:00,
2013-11-18 22:29:00,52.3,32.6,29.77,NNW,328,0.0,11.0,47,0.00,,,0.21,0,Wunderground v.1.15,2013-11-19 03:29:00,
2013-11-18 22:30:00,52.3,32.6,29.77,NNW,330,1.0,3.0,47,0.00,,,0.21,0,Wunderground v.1.15,2013-11-19 03:30:00,
2013-11-18 22:31:00,52.3,32.6,29.77,WNW,300,1.0,5.0,47,0.00,,,0.21,0,Wunderground v.1.15,2013-11-19 03:31:00,
2013-11-18 22:32:00,52.3,32.6,29.77,WNW,302,4.0,8.0,47,0.00,,,0.21,0,Wunderground v.1.15,2013-11-19 03:32:00,
2013-11-18 22:33:00,52.3,32.6,29.77,WNW,301,0.0,8.0,47,0.00,,,0.21,0,Wunderground v.1.15,2013-11-19 03:33:00,
2013-11-18 22:35:00,52.4,32.7,29.77,NNW,336,0.0,8.0,47,0.00,,,0.21,0,Wunderground v.1.15,2013-11-19 03:35:00,
2013-11-18 22:36:00,52.4,32.7,29.77,NW,318,0.0,8.0,47,0.00,,,0.21,0,Wunderground v.1.15,2013-11-19 03:36:00,
2013-11-18 22:37:00,52.4,32.7,29.77,NW,318,0.0,8.0,47,0.00,,,0.21,0,Wunderground v.1.15,2013-11-19 03:37:00,
2013-11-18 22:38:00,52.4,32.7,29.77,NW,325,3.0,8.0,47,0.00,,,0.21,0,Wunderground v.1.15,2013-11-19 03:38:00,
2013-11-18 22:40:00,52.4,32.7,29.77,NW,321,0.0,6.0,47,0.00,,,0.21,0,Wunderground v.1.15,2013-11-19 03:40:00,
2013-11-18 22:41:00,52.4,32.7,29.77,NW,314,3.0,6.0,47,0.00,,,0.21,0,Wunderground v.1.15,2013-11-19 03:41:00,
2013-11-18 22:42:00,52.4,32.7,29.77,NNW,335,0.0,6.0,47,0.00,,,0.21,0,Wunderground v.1.15,2013-11-19 03:42:00,
2013-11-18 22:45:00,52.4,32.7,29.77,NW,318,0.0,6.0,47,0.00,,,0.21,0,Wunderground v.1.15,2013-11-19 03:45:00,
2013-11-18 22:46:00,52.4,32.7,29.77,NNW,332,1.0,8.0,47,0.00,,,0.21,0,Wunderground v.1.15,2013-11-19 03:46:00,
2013-11-18 22:47:00,52.4,32.7,29.77,NW,315,2.0,8.0,47,0.00,,,0.21,0,Wunderground v.1.15,2013-11-19 03:47:00,
2013-11-18 22:48:00,52.4,32.7,29.77,NW,312,9.0,11.0,47,0.00,,,0.21,0,Wunderground v.1.15,2013-11-19 03:48:00,
2013-11-18 22:50:00,52.4,32.7,29.77,NW,313,1.0,2.0,47,0.00,,,0.21,0,Wunderground v.1.15,2013-11-19 03:50:00,
2013-11-18 22:52:00,52.4,32.7,29.77,NW,312,6.0,10.0,47,0.00,,,0.21,0,Wunderground v.1.15,2013-11-19 03:52:00,
2013-11-18 22:53:00,52.4,32.7,29.77,NW,311,0.0,10.0,47,0.00,,,0.21,0,Wunderground v.1.15,2013-11-19 03:53:00,
2013-11-18 22:55:00,52.4,32.7,29.77,WNW,300,6.0,10.0,47,0.00,,,0.21,0,Wunderground v.1.15,2013-11-19 03:55:00,
2013-11-18 22:56:00,52.4,32.7,29.77,NW,306,8.0,11.0,47,0.00,,,0.21,0,Wunderground v.1.15,2013-11-19 03:56:00,
2013-11-18 22:57:00,52.4,32.7,29.78,NNW,328,4.0,11.0,47,0.00,,,0.21,0,Wunderground v.1.15,2013-11-19 03:57:00,
2013-11-18 22:58:00,52.4,32.7,29.78,NNW,331,0.0,11.0,47,0.00,,,0.21,0,Wunderground v.1.15,2013-11-19 03:58:00,
2013-11-18 23:00:00,52.4,32.7,29.78,NW,317,1.0,4.0,47,0.00,,,0.21,0,Wunderground v.1.15,2013-11-19 04:00:00,
2013-11-18 23:02:00,52.4,32.7,29.78,WNW,284,1.0,9.0,47,0.00,,,0.21,0,Wunderground v.1.15,2013-11-19 04:02:00,
2013-11-18 23:04:00,52.3,32.6,29.78,NW,319,3.0,9.0,47,0.00,,,0.21,0,Wunderground v.1.15,2013-11-19 04:04:00,
2013-11-18 23:06:00,52.3,32.6,29.78,North,351,2.0,9.0,47,0.00,,,0.21,0,Wunderground v.1.15,2013-11-19 04:06:00,
2013-11-18 23:07:00,52.3,32.6,29.78,NNW,342,4.0,9.0,47,0.00,,,0.21,0,Wunderground v.1.15,2013-11-19 04:07:00,
2013-11-18 23:08:00,52.3,32.6,29.78,NW,307,0.0,9.0,47,0.00,,,0.21,0,Wunderground v.1.15,2013-11-19 04:08:00,
2013-11-18 23:09:00,52.3,32.6,29.78,NW,315,3.0,9.0,47,0.00,,,0.21,0,Wunderground v.1.15,2013-11-19 04:09:00,
2013-11-18 23:10:00,52.3,32.6,29.78,NW,317,0.0,2.0,47,0.00,,,0.21,0,Wunderground v.1.15,2013-11-19 04:10:00,
2013-11-18 23:11:00,52.3,32.6,29.78,WNW,286,5.0,5.0,47,0.00,,,0.21,0,Wunderground v.1.15,2013-11-19 04:11:00,
2013-11-18 23:12:00,52.3,32.6,29.79,NW,317,0.0,5.0,47,0.00,,,0.21,0,Wunderground v.1.15,2013-11-19 04:12:00,
2013-11-18 23:13:00,52.3,32.6,29.78,NW,319,3.0,5.0,47,0.00,,,0.21,0,Wunderground v.1.15,2013-11-19 04:13:00,
2013-11-18 23:14:00,52.2,32.6,29.78,NW,316,0.0,5.0,47,0.00,,,0.21,0,Wunderground v.1.15,2013-11-19 04:14:00,
2013-11-18 23:15:00,52.2,32.6,29.79,NW,317,1.0,5.0,47,0.00,,,0.21,0,Wunderground v.1.15,2013-11-19 04:15:00,
2013-11-18 23:16:00,52.2,32.6,29.79,NNW,332,0.0,5.0,47,0.00,,,0.21,0,Wunderground v.1.15,2013-11-19 04:16:00,
2013-11-18 23:18:00,52.2,32.6,29.79,NW,312,0.0,9.0,47,0.00,,,0.21,0,Wunderground v.1.15,2013-11-19 04:18:00,
2013-11-18 23:19:00,52.1,32.5,29.79,NW,319,0.0,9.0,47,0.00,,,0.21,0,Wunderground v.1.15,2013-11-19 04:19:00,
2013-11-18 23:20:00,52.1,32.5,29.79,North,355,5.0,5.0,47,0.00,,,0.21,0,Wunderground v.1.15,2013-11-19 04:20:00,
2013-11-18 23:22:00,52.1,32.5,29.79,NW,313,6.0,15.0,47,0.00,,,0.21,0,Wunderground v.1.15,2013-11-19 04:22:00,
2013-11-18 23:23:00,52.1,32.5,29.79,NNW,344,3.0,15.0,47,0.00,,,0.21,0,Wunderground v.1.15,2013-11-19 04:23:00,
2013-11-18 23:24:00,52.0,32.4,29.79,NNW,342,1.0,15.0,47,0.00,,,0.21,0,Wunderground v.1.15,2013-11-19 04:24:00,
2013-11-18 23:25:00,52.0,32.4,29.79,NNW,335,0.0,15.0,47,0.00,,,0.21,0,Wunderground v.1.15,2013-11-19 04:25:00,
2013-11-18 23:26:00,52.0,32.4,29.79,NW,314,5.0,15.0,47,0.00,,,0.21,0,Wunderground v.1.15,2013-11-19 04:26:00,
2013-11-18 23:27:00,51.9,32.3,29.79,NNW,330,2.0,15.0,47,0.00,,,0.21,0,Wunderground v.1.15,2013-11-19 04:27:00,
2013-11-18 23:29:00,51.9,32.3,29.79,NW,319,1.0,15.0,47,0.00,,,0.21,0,Wunderground v.1.15,2013-11-19 04:29:00,
2013-11-18 23:31:00,51.8,32.2,29.79,NNW,346,5.0,8.0,47,0.00,,,0.21,0,Wunderground v.1.15,2013-11-19 04:31:00,
2013-11-18 23:32:00,51.8,32.2,29.79,NNW,329,4.0,8.0,47,0.00,,,0.21,0,Wunderground v.1.15,2013-11-19 04:32:00,
2013-11-18 23:34:00,51.8,32.2,29.79,NNW,341,0.0,8.0,47,0.00,,,0.21,0,Wunderground v.1.15,2013-11-19 04:34:00,
2013-11-18 23:35:00,51.8,32.2,29.79,NNW,331,7.0,8.0,47,0.00,,,0.21,0,Wunderground v.1.15,2013-11-19 04:35:00,
2013-11-18 23:36:00,51.7,32.1,29.79,North,355,8.0,8.0,47,0.00,,,0.21,0,Wunderground v.1.15,2013-11-19 04:36:00,
2013-11-18 23:37:00,51.7,32.1,29.79,NNW,346,4.0,8.0,47,0.00,,,0.21,0,Wunderground v.1.15,2013-11-19 04:37:00,
2013-11-18 23:38:00,51.7,32.1,29.79,NNW,327,0.0,19.0,47,0.00,,,0.21,0,Wunderground v.1.15,2013-11-19 04:38:00,
2013-11-18 23:39:00,51.7,32.1,29.79,WNW,297,4.0,19.0,47,0.00,,,0.21,0,Wunderground v.1.15,2013-11-19 04:39:00,
2013-11-18 23:40:00,51.7,32.1,29.79,WNW,298,0.0,4.0,47,0.00,,,0.21,0,Wunderground v.1.15,2013-11-19 04:40:00,
2013-11-18 23:41:00,51.6,32.0,29.78,NNW,338,3.0,4.0,47,0.00,,,0.21,0,Wunderground v.1.15,2013-11-19 04:41:00,
2013-11-18 23:42:00,51.7,32.1,29.78,NNW,345,2.0,4.0,47,0.00,,,0.21,0,Wunderground v.1.15,2013-11-19 04:42:00,
2013-11-18 23:44:00,51.6,32.0,29.79,North,355,0.0,6.0,47,0.00,,,0.21,0,Wunderground v.1.15,2013-11-19 04:44:00,
2013-11-18 23:45:00,51.6,32.0,29.79,North,355,2.0,7.0,47,0.00,,,0.21,0,Wunderground v.1.15,2013-11-19 04:45:00,
2013-11-18 23:46:00,51.5,31.9,29.79,NNW,338,1.0,17.0,47,0.00,,,0.21,0,Wunderground v.1.15,2013-11-19 04:46:00,
2013-11-18 23:47:00,51.5,31.9,29.79,WNW,301,13.0,17.0,47,0.00,,,0.21,0,Wunderground v.1.15,2013-11-19 04:47:00,
2013-11-18 23:48:00,51.5,31.9,29.79,NNW,335,2.0,17.0,47,0.00,,,0.21,0,Wunderground v.1.15,2013-11-19 04:48:00,
2013-11-18 23:49:00,51.4,31.8,29.79,NW,315,4.0,17.0,47,0.00,,,0.21,0,Wunderground v.1.15,2013-11-19 04:49:00,
2013-11-18 23:50:00,51.4,31.8,29.79,NW,326,1.0,3.0,47,0.00,,,0.21,0,Wunderground v.1.15,2013-11-19 04:50:00,
2013-11-18 23:51:00,51.4,31.8,29.79,NNW,340,2.0,4.0,47,0.00,,,0.21,0,Wunderground v.1.15,2013-11-19 04:51:00,
2013-11-18 23:53:00,51.4,31.8,29.79,North,349,0.0,5.0,47,0.00,,,0.21,0,Wunderground v.1.15,2013-11-19 04:53:00,
2013-11-18 23:54:00,51.3,31.7,29.79,NW,313,2.0,5.0,47,0.00,,,0.21,0,Wunderground v.1.15,2013-11-19 04:54:00,
2013-11-18 23:56:00,51.3,31.7,29.79,NW,321,3.0,10.0,47,0.00,,,0.21,0,Wunderground v.1.15,2013-11-19 04:56:00,
2013-11-18 23:57:00,51.3,31.7,29.79,NW,326,0.0,10.0,47,0.00,,,0.21,0,Wunderground v.1.15,2013-11-19 04:57:00,
2013-11-18 23:58:00,51.2,31.6,29.79,NNW,344,0.0,10.0,47,0.00,,,0.00,0,Wunderground v.1.15,2013-11-19 04:58:00,
2013-11-18 23:59:00,51.2,31.6,29.79,North,355,1.0,10.0,47,0.00,,,0.00,0,Wunderground v.1.15,2013-11-19 04:59:00,